| time (UTC) | temp C | wind direction | speed KPH | gust KPH | rain 1hr cm | rain 24hr cm | rain mn cm | humidity % | barometer mb |
| 20260510193010 | 28 | 184 | 3.2 | 16.1 | 0.00 | 0.00 | 0.00 | 31 | 1017.8 |
| 20260510192912 | 28 | 157 | 3.2 | 16.1 | 0.00 | 0.00 | 0.00 | 31 | 1017.7 |
| 20260510192810 | 28 | 202 | 3.2 | 16.1 | 0.00 | 0.00 | 0.00 | 32 | 1017.8 |
| 20260510192605 | 29 | 252 | 1.6 | 8.0 | 0.00 | 0.00 | 0.00 | 34 | 1017.8 |
| 20260510192502 | 28 | 270 | 1.6 | 8.0 | 0.00 | 0.00 | 0.00 | 33 | 1017.8 |
| 20260510192403 | 28 | 207 | 3.2 | 9.7 | 0.00 | 0.00 | 0.00 | 35 | 1017.8 |
| 20260510192329 | 28 | 125 | 3.2 | 11.3 | 0.00 | 0.00 | 0.00 | 35 | 1017.8 |
| 20260510192307 | 28 | 282 | 3.2 | 11.3 | 0.00 | 0.00 | 0.00 | 33 | 1017.8 |
| 20260510192056 | 28 | 49 | 3.2 | 11.3 | 0.00 | 0.00 | 0.00 | 34 | 1017.8 |
| 20260510191956 | 28 | 212 | 3.2 | 11.3 | 0.00 | 0.00 | 0.00 | 36 | 1017.8 |
| 20260510191856 | 28 | 21 | 3.2 | 11.3 | 0.00 | 0.00 | 0.00 | 34 | 1017.9 |
| 20260510191821 | 28 | 300 | 3.2 | 11.3 | 0.00 | 0.00 | 0.00 | 33 | 1017.9 |
| 20260510191802 | 28 | 203 | 3.2 | 11.3 | 0.00 | 0.00 | 0.00 | 34 | 1017.8 |
| 20260510191556 | 28 | 211 | 3.2 | 11.3 | 0.00 | 0.00 | 0.00 | 32 | 1017.8 |
| 20260510191456 | 28 | 229 | 3.2 | 11.3 | 0.00 | 0.00 | 0.00 | 33 | 1017.8 |
| 20260510191354 | 28 | 208 | 3.2 | 11.3 | 0.00 | 0.00 | 0.00 | 33 | 1017.8 |
| 20260510191252 | 28 | 9 | 3.2 | 11.3 | 0.00 | 0.00 | 0.00 | 32 | 1017.9 |
| 20260510191045 | 28 | 53 | 3.2 | 11.3 | 0.00 | 0.00 | 0.00 | 33 | 1017.9 |
| 20260510190945 | 28 | 349 | 3.2 | 11.3 | 0.00 | 0.00 | 0.00 | 32 | 1017.9 |
| 20260510190847 | 28 | 27 | 3.2 | 11.3 | 0.00 | 0.00 | 0.00 | 32 | 1018.1 |
| 20260510190745 | 28 | 345 | 3.2 | 11.3 | 0.00 | 0.00 | 0.00 | 32 | 1018.1 |
| 20260510190542 | 28 | 264 | 3.2 | 11.3 | 0.00 | 0.00 | 0.00 | 33 | 1018.1 |
| 20260510190442 | 28 | 297 | 1.6 | 11.3 | 0.00 | 0.00 | 0.00 | 31 | 1018.1 |
| 20260510190343 | 28 | 288 | 1.6 | 11.3 | 0.00 | 0.00 | 0.00 | 33 | 1018.0 |
| 20260510190240 | 28 | 144 | 1.6 | 9.7 | 0.00 | 0.00 | 0.00 | 32 | 1018.0 |
| 20260510190037 | 28 | 194 | 1.6 | 8.0 | 0.00 | 0.00 | 0.00 | 33 | 1018.0 |
| 20260510185936 | 28 | 213 | 1.6 | 9.7 | 0.00 | 0.00 | 0.00 | 32 | 1018.1 |
| 20260510185844 | 28 | 82 | 1.6 | 9.7 | 0.00 | 0.00 | 0.00 | 32 | 1018.1 |
| 20260510185734 | 28 | 100 | 1.6 | 9.7 | 0.00 | 0.00 | 0.00 | 31 | 1018.1 |
| 20260510185528 | 28 | 158 | 3.2 | 9.7 | 0.00 | 0.00 | 0.00 | 32 | 1018.2 |
| 20260510185427 | 28 | 186 | 3.2 | 9.7 | 0.00 | 0.00 | 0.00 | 32 | 1018.2 |
| 20260510185328 | 28 | 211 | 3.2 | 9.7 | 0.00 | 0.00 | 0.00 | 34 | 1018.1 |
| 20260510185225 | 28 | 277 | 3.2 | 9.7 | 0.00 | 0.00 | 0.00 | 34 | 1018.2 |
| 20260510185020 | 28 | 86 | 3.2 | 9.7 | 0.00 | 0.00 | 0.00 | 36 | 1018.1 |
| 20260510184921 | 28 | 304 | 4.8 | 16.1 | 0.00 | 0.00 | 0.00 | 33 | 1018.2 |
| 20260510184820 | 28 | 304 | 4.8 | 16.1 | 0.00 | 0.00 | 0.00 | 33 | 1018.3 |
| 20260510184719 | 28 | 297 | 4.8 | 16.1 | 0.00 | 0.00 | 0.00 | 33 | 1018.3 |
| 20260510184514 | 28 | 8 | 4.8 | 16.1 | 0.00 | 0.00 | 0.00 | 34 | 1018.2 |
| 20260510184414 | 28 | 259 | 4.8 | 16.1 | 0.00 | 0.00 | 0.00 | 33 | 1018.2 |
| 20260510184315 | 28 | 169 | 4.8 | 16.1 | 0.00 | 0.00 | 0.00 | 33 | 1018.2 |
| 20260510184215 | 28 | 228 | 6.4 | 16.1 | 0.00 | 0.00 | 0.00 | 33 | 1018.2 |
| 20260510184011 | 28 | 217 | 6.4 | 16.1 | 0.00 | 0.00 | 0.00 | 33 | 1018.2 |
| 20260510183907 | 28 | 250 | 6.4 | 16.1 | 0.00 | 0.00 | 0.00 | 33 | 1018.1 |
| 20260510183808 | 28 | 184 | 6.4 | 16.1 | 0.00 | 0.00 | 0.00 | 34 | 1018.2 |
| 20260510183708 | 28 | 203 | 6.4 | 16.1 | 0.00 | 0.00 | 0.00 | 33 | 1018.2 |
| 20260510183502 | 28 | 288 | 4.8 | 12.9 | 0.00 | 0.00 | 0.00 | 33 | 1018.2 |
| 20260510183402 | 28 | 141 | 4.8 | 12.9 | 0.00 | 0.00 | 0.00 | 34 | 1018.2 |
| 20260510183303 | 28 | 221 | 4.8 | 12.9 | 0.00 | 0.00 | 0.00 | 34 | 1018.2 |
| 20260510183202 | 28 | 144 | 3.2 | 12.9 | 0.00 | 0.00 | 0.00 | 33 | 1018.2 |
| 20260510182958 | 28 | 162 | 3.2 | 12.9 | 0.00 | 0.00 | 0.00 | 34 | 1018.2 |
| 20260510182900 | 28 | 208 | 1.6 | 12.9 | 0.00 | 0.00 | 0.00 | 33 | 1018.1 |
| 20260510182759 | 28 | 214 | 1.6 | 9.7 | 0.00 | 0.00 | 0.00 | 33 | 1018.1 |
| 20260510182658 | 28 | 289 | 1.6 | 11.3 | 0.00 | 0.00 | 0.00 | 35 | 1018.1 |
| 20260510182454 | 28 | 207 | 1.6 | 11.3 | 0.00 | 0.00 | 0.00 | 36 | 1018.1 |
| 20260510182354 | 28 | 79 | 1.6 | 11.3 | 0.00 | 0.00 | 0.00 | 36 | 1018.1 |
| 20260510182255 | 28 | 60 | 1.6 | 11.3 | 0.00 | 0.00 | 0.00 | 36 | 1018.2 |
| 20260510182153 | 28 | 86 | 1.6 | 11.3 | 0.00 | 0.00 | 0.00 | 36 | 1018.1 |
| 20260510181944 | 28 | 91 | 3.2 | 11.3 | 0.00 | 0.00 | 0.00 | 34 | 1018.2 |
| 20260510181843 | 28 | 40 | 3.2 | 11.3 | 0.00 | 0.00 | 0.00 | 33 | 1018.3 |
| 20260510181744 | 28 | 4 | 3.2 | 11.3 | 0.00 | 0.00 | 0.00 | 33 | 1018.4 |
| 20260510181645 | 28 | 23 | 3.2 | 11.3 | 0.00 | 0.00 | 0.00 | 35 | 1018.3 |
| 20260510181442 | 28 | 333 | 3.2 | 11.3 | 0.00 | 0.00 | 0.00 | 35 | 1018.3 |
| 20260510181343 | 27 | 148 | 3.2 | 11.3 | 0.00 | 0.00 | 0.00 | 36 | 1018.2 |
| 20260510181242 | 27 | 345 | 3.2 | 11.3 | 0.00 | 0.00 | 0.00 | 34 | 1018.3 |
| 20260510181141 | 27 | 48 | 3.2 | 11.3 | 0.00 | 0.00 | 0.00 | 34 | 1018.3 |
| 20260510180936 | 28 | 352 | 3.2 | 14.5 | 0.00 | 0.00 | 0.00 | 33 | 1018.2 |
| 20260510180836 | 28 | 3 | 3.2 | 14.5 | 0.00 | 0.00 | 0.00 | 32 | 1018.2 |
| 20260510180733 | 28 | 348 | 3.2 | 14.5 | 0.00 | 0.00 | 0.00 | 32 | 1018.2 |
| 20260510180633 | 28 | 327 | 3.2 | 14.5 | 0.00 | 0.00 | 0.00 | 32 | 1018.1 |
| 20260510180429 | 28 | 149 | 3.2 | 14.5 | 0.00 | 0.00 | 0.00 | 33 | 1018.2 |
| 20260510180330 | 28 | 166 | 3.2 | 14.5 | 0.00 | 0.00 | 0.00 | 33 | 1018.3 |
| 20260510180227 | 27 | 162 | 3.2 | 14.5 | 0.00 | 0.00 | 0.00 | 32 | 1018.3 |
| 20260510180130 | 27 | 228 | 3.2 | 14.5 | 0.00 | 0.00 | 0.00 | 33 | 1018.2 |
| 20260510175919 | 27 | 122 | 4.8 | 12.9 | 0.00 | 0.00 | 0.00 | 33 | 1018.3 |
| 20260510175821 | 27 | 247 | 4.8 | 12.9 | 0.00 | 0.00 | 0.00 | 34 | 1018.3 |
| 20260510175721 | 27 | 162 | 4.8 | 12.9 | 0.00 | 0.00 | 0.00 | 36 | 1018.3 |
| 20260510175620 | 27 | 212 | 6.4 | 14.5 | 0.00 | 0.00 | 0.00 | 34 | 1018.3 |
| 20260510175418 | 27 | 259 | 6.4 | 14.5 | 0.00 | 0.00 | 0.00 | 35 | 1018.4 |
| 20260510175316 | 27 | 209 | 6.4 | 14.5 | 0.00 | 0.00 | 0.00 | 33 | 1018.3 |
| 20260510175215 | 27 | 231 | 4.8 | 14.5 | 0.00 | 0.00 | 0.00 | 32 | 1018.4 |
| 20260510175117 | 27 | 270 | 4.8 | 14.5 | 0.00 | 0.00 | 0.00 | 32 | 1018.4 |
| 20260510174909 | 27 | 181 | 4.8 | 14.5 | 0.00 | 0.00 | 0.00 | 33 | 1018.4 |
| 20260510174809 | 27 | 150 | 4.8 | 14.5 | 0.00 | 0.00 | 0.00 | 33 | 1018.5 |
| 20260510174709 | 27 | 164 | 4.8 | 12.9 | 0.00 | 0.00 | 0.00 | 34 | 1018.4 |
| 20260510174607 | 27 | 217 | 4.8 | 14.5 | 0.00 | 0.00 | 0.00 | 34 | 1018.5 |
| 20260510174406 | 27 | 285 | 4.8 | 14.5 | 0.00 | 0.00 | 0.00 | 33 | 1018.5 |
| 20260510174302 | 27 | 229 | 4.8 | 14.5 | 0.00 | 0.00 | 0.00 | 32 | 1018.5 |
| 20260510174203 | 27 | 221 | 4.8 | 14.5 | 0.00 | 0.00 | 0.00 | 34 | 1018.4 |
| 20260510174126 | 27 | 278 | 4.8 | 14.5 | 0.00 | 0.00 | 0.00 | 32 | 1018.4 |
| 20260510174107 | 27 | 295 | 4.8 | 14.5 | 0.00 | 0.00 | 0.00 | 32 | 1018.4 |
| 20260510173859 | 27 | 355 | 4.8 | 14.5 | 0.00 | 0.00 | 0.00 | 31 | 1018.4 |
| 20260510173756 | 27 | 30 | 4.8 | 14.5 | 0.00 | 0.00 | 0.00 | 31 | 1018.4 |
| 20260510173656 | 27 | 8 | 3.2 | 12.9 | 0.00 | 0.00 | 0.00 | 33 | 1018.4 |
| 20260510173557 | 27 | 38 | 3.2 | 12.9 | 0.00 | 0.00 | 0.00 | 36 | 1018.5 |
| 20260510173352 | 27 | 252 | 3.2 | 11.3 | 0.00 | 0.00 | 0.00 | 34 | 1018.5 |
| 20260510173326 | 27 | 251 | 3.2 | 11.3 | 0.00 | 0.00 | 0.00 | 33 | 1018.5 |
| 20260510173152 | 27 | 271 | 3.2 | 11.3 | 0.00 | 0.00 | 0.00 | 33 | 1018.6 |
| 20260510173112 | 27 | 272 | 3.2 | 11.3 | 0.00 | 0.00 | 0.00 | 32 | 1018.6 |
| 20260510173055 | 27 | 270 | 3.2 | 11.3 | 0.00 | 0.00 | 0.00 | 33 | 1018.6 |
| 20260510172846 | 27 | 358 | 3.2 | 11.3 | 0.00 | 0.00 | 0.00 | 31 | 1018.6 |
| 20260510172746 | 27 | 53 | 3.2 | 11.3 | 0.00 | 0.00 | 0.00 | 31 | 1018.6 |
| 20260510172646 | 27 | 20 | 3.2 | 11.3 | 0.00 | 0.00 | 0.00 | 31 | 1018.6 |
| 20260510172547 | 27 | 338 | 4.8 | 20.9 | 0.00 | 0.00 | 0.00 | 31 | 1018.6 |
| 20260510172340 | 27 | 44 | 4.8 | 20.9 | 0.00 | 0.00 | 0.00 | 32 | 1018.6 |
| 20260510172238 | 27 | 257 | 4.8 | 20.9 | 0.00 | 0.00 | 0.00 | 30 | 1018.6 |
| 20260510172139 | 27 | 245 | 4.8 | 20.9 | 0.00 | 0.00 | 0.00 | 32 | 1018.6 |
| 20260510172102 | 27 | 162 | 4.8 | 20.9 | 0.00 | 0.00 | 0.00 | 32 | 1018.7 |
| 20260510172043 | 27 | 203 | 4.8 | 20.9 | 0.00 | 0.00 | 0.00 | 32 | 1018.6 |
| 20260510171831 | 27 | 192 | 4.8 | 20.9 | 0.00 | 0.00 | 0.00 | 31 | 1018.6 |
| 20260510171732 | 27 | 186 | 4.8 | 20.9 | 0.00 | 0.00 | 0.00 | 30 | 1018.6 |
| 20260510171633 | 27 | 179 | 4.8 | 20.9 | 0.00 | 0.00 | 0.00 | 30 | 1018.6 |
| 20260510171533 | 27 | 241 | 3.2 | 14.5 | 0.00 | 0.00 | 0.00 | 32 | 1018.5 |
| 20260510171329 | 27 | 359 | 3.2 | 14.5 | 0.00 | 0.00 | 0.00 | 31 | 1018.5 |
| 20260510171227 | 27 | 262 | 3.2 | 14.5 | 0.00 | 0.00 | 0.00 | 31 | 1018.5 |
| 20260510171127 | 27 | 36 | 3.2 | 9.7 | 0.00 | 0.00 | 0.00 | 33 | 1018.4 |
| 20260510171048 | 27 | 313 | 1.6 | 9.7 | 0.00 | 0.00 | 0.00 | 32 | 1018.5 |
| 20260510171031 | 27 | 189 | 3.2 | 9.7 | 0.00 | 0.00 | 0.00 | 36 | 1018.6 |
| 20260510170823 | 27 | 290 | 3.2 | 11.3 | 0.00 | 0.00 | 0.00 | 36 | 1018.5 |
| 20260510170720 | 27 | 23 | 3.2 | 11.3 | 0.00 | 0.00 | 0.00 | 36 | 1018.5 |
| 20260510170620 | 27 | 32 | 3.2 | 11.3 | 0.00 | 0.00 | 0.00 | 39 | 1018.5 |
| 20260510170520 | 27 | 117 | 3.2 | 11.3 | 0.00 | 0.00 | 0.00 | 36 | 1018.5 |
| 20260510170319 | 27 | 134 | 4.8 | 11.3 | 0.00 | 0.00 | 0.00 | 37 | 1018.7 |
| 20260510170217 | 27 | 137 | 4.8 | 12.9 | 0.00 | 0.00 | 0.00 | 38 | 1018.8 |
| 20260510170117 | 27 | 257 | 4.8 | 12.9 | 0.00 | 0.00 | 0.00 | 37 | 1018.6 |
| 20260510170017 | 27 | 153 | 4.8 | 12.9 | 0.00 | 0.00 | 0.00 | 37 | 1018.8 |
| 20260510165808 | 27 | 231 | 4.8 | 12.9 | 0.00 | 0.00 | 0.00 | 35 | 1018.6 |
| 20260510165708 | 27 | 276 | 4.8 | 12.9 | 0.00 | 0.00 | 0.00 | 34 | 1018.7 |
| 20260510165609 | 27 | 328 | 4.8 | 12.9 | 0.00 | 0.00 | 0.00 | 36 | 1018.6 |
| 20260510165508 | 27 | 155 | 4.8 | 12.9 | 0.00 | 0.00 | 0.00 | 38 | 1018.5 |
| 20260510165307 | 27 | 150 | 3.2 | 11.3 | 0.00 | 0.00 | 0.00 | 39 | 1018.5 |
| 20260510165205 | 27 | 264 | 3.2 | 11.3 | 0.00 | 0.00 | 0.00 | 35 | 1018.6 |
| 20260510165105 | 27 | 290 | 3.2 | 11.3 | 0.00 | 0.00 | 0.00 | 36 | 1018.5 |
| 20260510165005 | 27 | 154 | 3.2 | 11.3 | 0.00 | 0.00 | 0.00 | 37 | 1018.6 |
| 20260510164755 | 27 | 199 | 3.2 | 11.3 | 0.00 | 0.00 | 0.00 | 39 | 1018.6 |
| 20260510164657 | 27 | 169 | 3.2 | 11.3 | 0.00 | 0.00 | 0.00 | 37 | 1018.6 |
| 20260510164557 | 27 | 216 | 3.2 | 11.3 | 0.00 | 0.00 | 0.00 | 35 | 1018.6 |
| 20260510164457 | 27 | 215 | 3.2 | 11.3 | 0.00 | 0.00 | 0.00 | 36 | 1018.6 |
| 20260510164251 | 27 | 353 | 3.2 | 11.3 | 0.00 | 0.00 | 0.00 | 37 | 1018.8 |
| 20260510164150 | 27 | 310 | 3.2 | 12.9 | 0.00 | 0.00 | 0.00 | 37 | 1018.7 |
| 20260510163951 | 27 | 251 | 4.8 | 12.9 | 0.00 | 0.00 | 0.00 | 39 | 1018.7 |
| 20260510163746 | 27 | 285 | 4.8 | 12.9 | 0.00 | 0.00 | 0.00 | 35 | 1018.8 |
| 20260510163645 | 27 | 210 | 4.8 | 12.9 | 0.00 | 0.00 | 0.00 | 34 | 1018.8 |
| 20260510163545 | 27 | 221 | 4.8 | 12.9 | 0.00 | 0.00 | 0.00 | 37 | 1018.8 |
| 20260510163443 | 27 | 240 | 3.2 | 12.9 | 0.00 | 0.00 | 0.00 | 36 | 1018.7 |
| 20260510163239 | 27 | 7 | 3.2 | 12.9 | 0.00 | 0.00 | 0.00 | 36 | 1018.8 |
| 20260510163139 | 27 | 148 | 3.2 | 11.3 | 0.00 | 0.00 | 0.00 | 36 | 1018.7 |
| 20260510163038 | 27 | 159 | 3.2 | 11.3 | 0.00 | 0.00 | 0.00 | 36 | 1018.6 |
| 20260510162938 | 27 | 136 | 1.6 | 9.7 | 0.00 | 0.00 | 0.00 | 35 | 1018.6 |
| 20260510162839 | 27 | 205 | 1.6 | 9.7 | 0.00 | 0.00 | 0.00 | 35 | 1018.7 |
| 20260510162737 | 27 | 213 | 1.6 | 8.0 | 0.00 | 0.00 | 0.00 | 37 | 1018.7 |
| 20260510162636 | 27 | 243 | 1.6 | 8.0 | 0.00 | 0.00 | 0.00 | 36 | 1018.7 |
| 20260510162535 | 27 | 271 | 1.6 | 12.9 | 0.00 | 0.00 | 0.00 | 36 | 1018.7 |
| 20260510162457 | 27 | 278 | 1.6 | 12.9 | 0.00 | 0.00 | 0.00 | 38 | 1018.7 |
| 20260510162333 | 27 | 253 | 1.6 | 12.9 | 0.00 | 0.00 | 0.00 | 36 | 1018.7 |
| 20260510162226 | 26 | 340 | 1.6 | 12.9 | 0.00 | 0.00 | 0.00 | 36 | 1018.7 |
| 20260510162126 | 26 | 173 | 3.2 | 12.9 | 0.00 | 0.00 | 0.00 | 37 | 1018.7 |
| 20260510162027 | 26 | 263 | 3.2 | 12.9 | 0.00 | 0.00 | 0.00 | 39 | 1018.8 |
| 20260510161926 | 26 | 275 | 3.2 | 12.9 | 0.00 | 0.00 | 0.00 | 40 | 1018.7 |
| 20260510161827 | 26 | 67 | 3.2 | 12.9 | 0.00 | 0.00 | 0.00 | 37 | 1018.8 |
| 20260510161721 | 26 | 50 | 3.2 | 12.9 | 0.00 | 0.00 | 0.00 | 35 | 1018.7 |
| 20260510161620 | 26 | 43 | 3.2 | 12.9 | 0.00 | 0.00 | 0.00 | 37 | 1018.8 |
| 20260510161521 | 26 | 60 | 3.2 | 12.9 | 0.00 | 0.00 | 0.00 | 38 | 1018.7 |
| 20260510161451 | 26 | 60 | 3.2 | 12.9 | 0.00 | 0.00 | 0.00 | 38 | 1018.8 |
| 20260510161321 | 26 | 317 | 3.2 | 12.9 | 0.00 | 0.00 | 0.00 | 37 | 1018.8 |
| 20260510161218 | 26 | 332 | 3.2 | 12.9 | 0.00 | 0.00 | 0.00 | 40 | 1018.8 |
| 20260510161116 | 26 | 89 | 3.2 | 8.0 | 0.00 | 0.00 | 0.00 | 43 | 1018.8 |
| 20260510161017 | 26 | 107 | 3.2 | 8.0 | 0.00 | 0.00 | 0.00 | 41 | 1018.9 |
| 20260510160917 | 26 | 73 | 3.2 | 8.0 | 0.00 | 0.00 | 0.00 | 38 | 1018.9 |
| 20260510160815 | 26 | 62 | 3.2 | 8.0 | 0.00 | 0.00 | 0.00 | 37 | 1018.9 |
| 20260510160710 | 26 | 41 | 3.2 | 8.0 | 0.00 | 0.00 | 0.00 | 36 | 1019.1 |
| 20260510160608 | 26 | 0 | 3.2 | 8.0 | 0.00 | 0.00 | 0.00 | 36 | 1019.0 |
| 20260510160508 | 26 | 320 | 1.6 | 8.0 | 0.00 | 0.00 | 0.00 | 39 | 1019.1 |
| 20260510160409 | 26 | 55 | 1.6 | 6.4 | 0.00 | 0.00 | 0.00 | 37 | 1019.0 |
| 20260510160309 | 26 | 338 | 1.6 | 6.4 | 0.00 | 0.00 | 0.00 | 38 | 1019.0 |
| 20260510160208 | 26 | 42 | 1.6 | 6.4 | 0.00 | 0.00 | 0.00 | 39 | 1019.0 |
| 20260510160105 | 26 | 37 | 1.6 | 6.4 | 0.00 | 0.00 | 0.00 | 38 | 1019.0 |
| 20260510160007 | 26 | 22 | 1.6 | 6.4 | 0.00 | 0.00 | 0.00 | 37 | 1019.0 |
| 20260510155905 | 26 | 32 | 1.6 | 8.0 | 0.00 | 0.00 | 0.00 | 40 | 1019.0 |
| 20260510155803 | 26 | 317 | 1.6 | 8.0 | 0.00 | 0.00 | 0.00 | 41 | 1019.0 |
| 20260510155702 | 26 | 62 | 1.6 | 8.0 | 0.00 | 0.00 | 0.00 | 42 | 1019.1 |
| 20260510155601 | 26 | 63 | 3.2 | 8.0 | 0.00 | 0.00 | 0.00 | 39 | 1019.0 |
| 20260510155502 | 26 | 62 | 3.2 | 8.0 | 0.00 | 0.00 | 0.00 | 39 | 1019.0 |
| 20260510155443 | 26 | 94 | 3.2 | 8.0 | 0.00 | 0.00 | 0.00 | 37 | 1019.0 |
| 20260510155257 | 26 | 326 | 3.2 | 8.0 | 0.00 | 0.00 | 0.00 | 35 | 1019.0 |
| 20260510155155 | 26 | 336 | 3.2 | 8.0 | 0.00 | 0.00 | 0.00 | 38 | 1019.0 |
| 20260510155054 | 26 | 136 | 3.2 | 8.0 | 0.00 | 0.00 | 0.00 | 37 | 1019.0 |
| 20260510154943 | 25 | 24 | 3.2 | 8.0 | 0.00 | 0.00 | 0.00 | 42 | 1019.0 |
| 20260510154751 | 25 | 50 | 3.2 | 8.0 | 0.00 | 0.00 | 0.00 | 42 | 1019.0 |
| 20260510154646 | 25 | 141 | 3.2 | 9.7 | 0.00 | 0.00 | 0.00 | 41 | 1019.1 |
| 20260510154543 | 25 | 252 | 3.2 | 9.7 | 0.00 | 0.00 | 0.00 | 46 | 1019.1 |
| 20260510154445 | 25 | 34 | 4.8 | 9.7 | 0.00 | 0.00 | 0.00 | 47 | 1019.1 |
| 20260510154344 | 25 | 117 | 4.8 | 11.3 | 0.00 | 0.00 | 0.00 | 47 | 1019.1 |
| 20260510154245 | 25 | 240 | 4.8 | 11.3 | 0.00 | 0.00 | 0.00 | 47 | 1019.1 |
| 20260510154137 | 25 | 39 | 4.8 | 11.3 | 0.00 | 0.00 | 0.00 | 48 | 1019.2 |
| 20260510154038 | 25 | 48 | 4.8 | 11.3 | 0.00 | 0.00 | 0.00 | 49 | 1019.2 |
| 20260510153940 | 25 | 38 | 4.8 | 11.3 | 0.00 | 0.00 | 0.00 | 48 | 1019.2 |
| 20260510153839 | 25 | 44 | 4.8 | 11.3 | 0.00 | 0.00 | 0.00 | 48 | 1019.2 |
| 20260510153739 | 25 | 56 | 4.8 | 11.3 | 0.00 | 0.00 | 0.00 | 49 | 1019.2 |
| 20260510153635 | 25 | 281 | 4.8 | 11.3 | 0.00 | 0.00 | 0.00 | 47 | 1019.2 |
| 20260510153532 | 25 | 305 | 4.8 | 11.3 | 0.00 | 0.00 | 0.00 | 48 | 1019.2 |
| 20260510153433 | 25 | 338 | 3.2 | 12.9 | 0.00 | 0.00 | 0.00 | 47 | 1019.2 |
| 20260510153332 | 25 | 58 | 3.2 | 12.9 | 0.00 | 0.00 | 0.00 | 46 | 1019.2 |
| 20260510153233 | 25 | 60 | 3.2 | 12.9 | 0.00 | 0.00 | 0.00 | 48 | 1019.3 |
| 20260510153125 | 25 | 61 | 3.2 | 12.9 | 0.00 | 0.00 | 0.00 | 49 | 1019.3 |
| 20260510153026 | 25 | 347 | 3.2 | 12.9 | 0.00 | 0.00 | 0.00 | 48 | 1019.2 |
| 20260510152927 | 25 | 13 | 3.2 | 12.9 | 0.00 | 0.00 | 0.00 | 47 | 1019.3 |
| 20260510152826 | 25 | 313 | 3.2 | 14.5 | 0.00 | 0.00 | 0.00 | 50 | 1019.2 |
| 20260510152727 | 25 | 127 | 3.2 | 14.5 | 0.00 | 0.00 | 0.00 | 50 | 1019.2 |
| 20260510152621 | 25 | 38 | 3.2 | 14.5 | 0.00 | 0.00 | 0.00 | 50 | 1019.3 |
| 20260510152522 | 25 | 252 | 3.2 | 14.5 | 0.00 | 0.00 | 0.00 | 49 | 1019.3 |
| 20260510152423 | 25 | 223 | 3.2 | 14.5 | 0.00 | 0.00 | 0.00 | 48 | 1019.2 |
| 20260510152324 | 25 | 48 | 3.2 | 14.5 | 0.00 | 0.00 | 0.00 | 49 | 1019.2 |
| 20260510152221 | 25 | 256 | 3.2 | 14.5 | 0.00 | 0.00 | 0.00 | 49 | 1019.2 |
| 20260510152122 | 25 | 42 | 3.2 | 14.5 | 0.00 | 0.00 | 0.00 | 50 | 1019.1 |
| 20260510152021 | 25 | 294 | 3.2 | 14.5 | 0.00 | 0.00 | 0.00 | 48 | 1019.2 |
| 20260510151921 | 25 | 337 | 1.6 | 14.5 | 0.00 | 0.00 | 0.00 | 49 | 1019.2 |
| 20260510151822 | 25 | 48 | 1.6 | 9.7 | 0.00 | 0.00 | 0.00 | 50 | 1019.2 |
| 20260510151722 | 25 | 61 | 1.6 | 9.7 | 0.00 | 0.00 | 0.00 | 52 | 1019.2 |
| 20260510151621 | 25 | 309 | 1.6 | 9.7 | 0.00 | 0.00 | 0.00 | 51 | 1019.1 |
| 20260510151523 | 25 | 295 | 1.6 | 9.7 | 0.00 | 0.00 | 0.00 | 51 | 1019.2 |
| 20260510151422 | 25 | 67 | 1.6 | 9.7 | 0.00 | 0.00 | 0.00 | 50 | 1019.2 |
| 20260510151323 | 25 | 74 | 1.6 | 8.0 | 0.00 | 0.00 | 0.00 | 53 | 1019.3 |
| 20260510151222 | 25 | 271 | 3.2 | 8.0 | 0.00 | 0.00 | 0.00 | 52 | 1019.3 |
| 20260510151121 | 25 | 51 | 3.2 | 8.0 | 0.00 | 0.00 | 0.00 | 51 | 1019.2 |
| 20260510151023 | 25 | 53 | 3.2 | 11.3 | 0.00 | 0.00 | 0.00 | 52 | 1019.2 |
| 20260510150943 | 25 | 53 | 3.2 | 11.3 | 0.00 | 0.00 | 0.00 | 52 | 1019.3 |
| 20260510150817 | 25 | 53 | 3.2 | 11.3 | 0.00 | 0.00 | 0.00 | 51 | 1019.3 |
| 20260510150716 | 25 | 20 | 3.2 | 11.3 | 0.00 | 0.00 | 0.00 | 51 | 1019.2 |
| 20260510150613 | 25 | 20 | 3.2 | 11.3 | 0.00 | 0.00 | 0.00 | 50 | 1019.2 |
| 20260510150514 | 25 | 48 | 3.2 | 11.3 | 0.00 | 0.00 | 0.00 | 52 | 1019.2 |
| 20260510150444 | 25 | 309 | 3.2 | 11.3 | 0.00 | 0.00 | 0.00 | 52 | 1019.2 |
| 20260510150307 | 25 | 33 | 3.2 | 11.3 | 0.00 | 0.00 | 0.00 | 51 | 1019.2 |
| 20260510150209 | 25 | 359 | 3.2 | 11.3 | 0.00 | 0.00 | 0.00 | 51 | 1019.1 |
| 20260510150110 | 25 | 62 | 1.6 | 11.3 | 0.00 | 0.00 | 0.00 | 51 | 1019.2 |
| 20260510150009 | 25 | 53 | 1.6 | 6.4 | 0.00 | 0.00 | 0.00 | 52 | 1019.1 |
| 20260510145905 | 25 | 79 | 1.6 | 6.4 | 0.00 | 0.00 | 0.00 | 52 | 1019.2 |
| 20260510145807 | 25 | 14 | 1.6 | 6.4 | 0.00 | 0.00 | 0.00 | 54 | 1019.2 |
| 20260510145705 | 25 | 13 | 1.6 | 6.4 | 0.00 | 0.00 | 0.00 | 50 | 1019.3 |
| 20260510145605 | 25 | 13 | 1.6 | 6.4 | 0.00 | 0.00 | 0.00 | 52 | 1019.2 |
| 20260510145503 | 25 | 214 | 1.6 | 6.4 | 0.00 | 0.00 | 0.00 | 52 | 1019.2 |
| 20260510145357 | 25 | 212 | 1.6 | 6.4 | 0.00 | 0.00 | 0.00 | 50 | 1019.2 |
| 20260510145257 | 25 | 272 | 1.6 | 8.0 | 0.00 | 0.00 | 0.00 | 51 | 1019.2 |
| 20260510145157 | 25 | 243 | 1.6 | 8.0 | 0.00 | 0.00 | 0.00 | 49 | 1019.3 |
| 20260510145055 | 25 | 319 | 1.6 | 8.0 | 0.00 | 0.00 | 0.00 | 51 | 1019.3 |
| 20260510144956 | 25 | 188 | 1.6 | 8.0 | 0.00 | 0.00 | 0.00 | 52 | 1019.2 |
| 20260510144926 | 25 | 344 | 1.6 | 8.0 | 0.00 | 0.00 | 0.00 | 53 | 1019.2 |
| 20260510144754 | 25 | 344 | 1.6 | 8.0 | 0.00 | 0.00 | 0.00 | 53 | 1019.3 |
| 20260510144653 | 25 | 342 | 1.6 | 8.0 | 0.00 | 0.00 | 0.00 | 51 | 1019.3 |
| 20260510144553 | 25 | 222 | 1.6 | 8.0 | 0.00 | 0.00 | 0.00 | 53 | 1019.3 |
| 20260510144450 | 25 | 5 | 1.6 | 8.0 | 0.00 | 0.00 | 0.00 | 51 | 1019.2 |
| 20260510144420 | 25 | 30 | 1.6 | 8.0 | 0.00 | 0.00 | 0.00 | 52 | 1019.2 |
| 20260510144245 | 24 | 245 | 1.6 | 6.4 | 0.00 | 0.00 | 0.00 | 52 | 1019.2 |
| 20260510144143 | 24 | 176 | 1.6 | 6.4 | 0.00 | 0.00 | 0.00 | 52 | 1019.1 |
| 20260510144044 | 24 | 129 | 1.6 | 6.4 | 0.00 | 0.00 | 0.00 | 54 | 1019.2 |
| 20260510143945 | 24 | 278 | 1.6 | 6.4 | 0.00 | 0.00 | 0.00 | 56 | 1019.1 |
| 20260510143840 | 24 | 75 | 1.6 | 6.4 | 0.00 | 0.00 | 0.00 | 54 | 1019.1 |
| 20260510143739 | 24 | 36 | 1.6 | 6.4 | 0.00 | 0.00 | 0.00 | 52 | 1019.2 |
| 20260510143639 | 24 | 27 | 0.0 | 6.4 | 0.00 | 0.00 | 0.00 | 54 | 1019.2 |
| 20260510143539 | 24 | 38 | 0.0 | 6.4 | 0.00 | 0.00 | 0.00 | 52 | 1019.2 |
| 20260510143438 | 24 | 35 | 1.6 | 8.0 | 0.00 | 0.00 | 0.00 | 55 | 1019.2 |
| 20260510143334 | 24 | 132 | 1.6 | 11.3 | 0.00 | 0.00 | 0.00 | 53 | 1019.2 |
| 20260510143232 | 24 | 132 | 1.6 | 11.3 | 0.00 | 0.00 | 0.00 | 53 | 1019.2 |
| 20260510143129 | 24 | 133 | 1.6 | 11.3 | 0.00 | 0.00 | 0.00 | 51 | 1019.2 |
| 20260510143031 | 24 | 93 | 1.6 | 11.3 | 0.00 | 0.00 | 0.00 | 52 | 1019.1 |
| 20260510142931 | 24 | 322 | 1.6 | 11.3 | 0.00 | 0.00 | 0.00 | 51 | 1019.2 |
| 20260510142823 | 24 | 320 | 1.6 | 11.3 | 0.00 | 0.00 | 0.00 | 53 | 1019.2 |
| 20260510142723 | 24 | 327 | 1.6 | 11.3 | 0.00 | 0.00 | 0.00 | 52 | 1019.2 |
| 20260510142623 | 24 | 32 | 1.6 | 11.3 | 0.00 | 0.00 | 0.00 | 50 | 1019.2 |
| 20260510142524 | 24 | 33 | 0.0 | 11.3 | 0.00 | 0.00 | 0.00 | 51 | 1019.2 |
| 20260510142425 | 24 | 47 | 0.0 | 11.3 | 0.00 | 0.00 | 0.00 | 54 | 1019.1 |
| 20260510142321 | 24 | 32 | 0.0 | 3.2 | 0.00 | 0.00 | 0.00 | 54 | 1019.3 |
| 20260510142219 | 24 | 16 | 0.0 | 3.2 | 0.00 | 0.00 | 0.00 | 52 | 1019.2 |
| 20260510142120 | 24 | 341 | 0.0 | 3.2 | 0.00 | 0.00 | 0.00 | 52 | 1019.4 |
| 20260510142019 | 24 | 16 | 1.6 | 4.8 | 0.00 | 0.00 | 0.00 | 54 | 1019.4 |
| 20260510141919 | 24 | 15 | 1.6 | 4.8 | 0.00 | 0.00 | 0.00 | 55 | 1019.3 |
| 20260510141815 | 23 | 13 | 1.6 | 4.8 | 0.00 | 0.00 | 0.00 | 56 | 1019.4 |
| 20260510141717 | 23 | 13 | 1.6 | 4.8 | 0.00 | 0.00 | 0.00 | 56 | 1019.3 |
| 20260510141616 | 23 | 13 | 1.6 | 4.8 | 0.00 | 0.00 | 0.00 | 55 | 1019.4 |
| 20260510141516 | 23 | 17 | 1.6 | 4.8 | 0.00 | 0.00 | 0.00 | 56 | 1019.3 |
| 20260510141415 | 23 | 254 | 1.6 | 4.8 | 0.00 | 0.00 | 0.00 | 53 | 1019.4 |
| 20260510141317 | 23 | 241 | 1.6 | 4.8 | 0.00 | 0.00 | 0.00 | 52 | 1019.3 |
| 20260510141214 | 23 | 256 | 1.6 | 4.8 | 0.00 | 0.00 | 0.00 | 52 | 1019.3 |
| 20260510141114 | 23 | 302 | 1.6 | 4.8 | 0.00 | 0.00 | 0.00 | 54 | 1019.3 |
| 20260510141011 | 23 | 349 | 1.6 | 4.8 | 0.00 | 0.00 | 0.00 | 53 | 1019.3 |
| 20260510140912 | 23 | 27 | 1.6 | 4.8 | 0.00 | 0.00 | 0.00 | 58 | 1019.3 |
| 20260510140809 | 23 | 29 | 1.6 | 4.8 | 0.00 | 0.00 | 0.00 | 55 | 1019.3 |
| 20260510140709 | 23 | 30 | 1.6 | 4.8 | 0.00 | 0.00 | 0.00 | 55 | 1019.3 |
| 20260510140607 | 23 | 27 | 1.6 | 4.8 | 0.00 | 0.00 | 0.00 | 54 | 1019.1 |
| 20260510140506 | 23 | 68 | 0.0 | 4.8 | 0.00 | 0.00 | 0.00 | 56 | 1019.2 |
| 20260510140407 | 23 | 270 | 0.0 | 4.8 | 0.00 | 0.00 | 0.00 | 53 | 1019.3 |
| 20260510140306 | 23 | 245 | 0.0 | 4.8 | 0.00 | 0.00 | 0.00 | 57 | 1019.2 |
| 20260510140207 | 23 | 38 | 0.0 | 4.8 | 0.00 | 0.00 | 0.00 | 55 | 1019.3 |
| 20260510140104 | 23 | 38 | 0.0 | 4.8 | 0.00 | 0.00 | 0.00 | 55 | 1019.2 |
| 20260510140004 | 23 | 0 | 0.0 | 6.4 | 0.00 | 0.00 | 0.00 | 56 | 1019.2 |
| 20260510135920 | 23 | 355 | 0.0 | 6.4 | 0.00 | 0.00 | 0.00 | 55 | 1019.2 |
| 20260510135904 | 23 | 355 | 1.6 | 6.4 | 0.00 | 0.00 | 0.00 | 58 | 1019.2 |
| 20260510135705 | 23 | 18 | 1.6 | 6.4 | 0.00 | 0.00 | 0.00 | 56 | 1019.3 |
| 20260510135603 | 22 | 18 | 1.6 | 6.4 | 0.00 | 0.00 | 0.00 | 57 | 1019.2 |
| 20260510135503 | 22 | 5 | 1.6 | 6.4 | 0.00 | 0.00 | 0.00 | 58 | 1019.2 |
| 20260510135405 | 22 | 5 | 1.6 | 6.4 | 0.00 | 0.00 | 0.00 | 58 | 1019.1 |
| 20260510135306 | 22 | 4 | 1.6 | 6.4 | 0.00 | 0.00 | 0.00 | 57 | 1019.2 |
| 20260510135205 | 22 | 7 | 1.6 | 6.4 | 0.00 | 0.00 | 0.00 | 56 | 1019.2 |
| 20260510135101 | 22 | 1 | 0.0 | 6.4 | 0.00 | 0.00 | 0.00 | 56 | 1019.3 |
| 20260510134958 | 22 | 208 | 0.0 | 4.8 | 0.00 | 0.00 | 0.00 | 57 | 1019.1 |
| 20260510134858 | 22 | 53 | 0.0 | 4.8 | 0.00 | 0.00 | 0.00 | 54 | 1019.1 |
| 20260510134757 | 22 | 314 | 0.0 | 3.2 | 0.00 | 0.00 | 0.00 | 56 | 1019.1 |
| 20260510134656 | 22 | 324 | 0.0 | 3.2 | 0.00 | 0.00 | 0.00 | 62 | 1019.2 |
| 20260510134555 | 22 | 267 | 0.0 | 3.2 | 0.00 | 0.00 | 0.00 | 58 | 1019.1 |
| 20260510134455 | 22 | 264 | 0.0 | 3.2 | 0.00 | 0.00 | 0.00 | 58 | 1019.1 |
| 20260510134357 | 22 | 355 | 0.0 | 3.2 | 0.00 | 0.00 | 0.00 | 59 | 1019.2 |
| 20260510134253 | 22 | 345 | 0.0 | 3.2 | 0.00 | 0.00 | 0.00 | 59 | 1019.1 |
| 20260510134153 | 22 | 317 | 0.0 | 3.2 | 0.00 | 0.00 | 0.00 | 62 | 1019.1 |
| 20260510134055 | 21 | 288 | 0.0 | 3.2 | 0.00 | 0.00 | 0.00 | 62 | 1019.1 |
| 20260510133953 | 21 | 345 | 0.0 | 3.2 | 0.00 | 0.00 | 0.00 | 63 | 1019.1 |
| 20260510133855 | 21 | 278 | 0.0 | 3.2 | 0.00 | 0.00 | 0.00 | 63 | 1019.1 |
| 20260510133752 | 21 | 278 | 1.6 | 6.4 | 0.00 | 0.00 | 0.00 | 63 | 1019.0 |
| 20260510133652 | 21 | 228 | 1.6 | 6.4 | 0.00 | 0.00 | 0.00 | 64 | 1019.1 |
| 20260510133552 | 21 | 230 | 1.6 | 6.4 | 0.00 | 0.00 | 0.00 | 64 | 1019.0 |
| 20260510133453 | 21 | 230 | 1.6 | 6.4 | 0.00 | 0.00 | 0.00 | 63 | 1019.0 |
| 20260510133348 | 21 | 316 | 1.6 | 6.4 | 0.00 | 0.00 | 0.00 | 64 | 1019.0 |
| 20260510133248 | 21 | 271 | 0.0 | 6.4 | 0.00 | 0.00 | 0.00 | 63 | 1019.0 |
| 20260510133148 | 21 | 264 | 0.0 | 6.4 | 0.00 | 0.00 | 0.00 | 67 | 1019.1 |
| 20260510133048 | 21 | 352 | 0.0 | 6.4 | 0.00 | 0.00 | 0.00 | 68 | 1019.1 |
| 20260510132949 | 21 | 45 | 0.0 | 6.4 | 0.00 | 0.00 | 0.00 | 65 | 1019.1 |
| 20260510132847 | 21 | 46 | 0.0 | 6.4 | 0.00 | 0.00 | 0.00 | 70 | 1019.0 |
| 20260510132748 | 21 | 60 | 0.0 | 1.6 | 0.00 | 0.00 | 0.00 | 70 | 1019.0 |
| 20260510132648 | 20 | 61 | 0.0 | 1.6 | 0.00 | 0.00 | 0.00 | 72 | 1019.0 |
| 20260510132549 | 20 | 60 | 0.0 | 1.6 | 0.00 | 0.00 | 0.00 | 70 | 1019.0 |
| 20260510132448 | 20 | 60 | 0.0 | 1.6 | 0.00 | 0.00 | 0.00 | 70 | 1019.0 |
| 20260510132348 | 20 | 61 | 0.0 | 1.6 | 0.00 | 0.00 | 0.00 | 71 | 1019.0 |
| 20260510132248 | 20 | 357 | 0.0 | 1.6 | 0.00 | 0.00 | 0.00 | 72 | 1019.0 |
| 20260510132147 | 20 | 357 | 0.0 | 1.6 | 0.00 | 0.00 | 0.00 | 75 | 1019.1 |
| 20260510132048 | 20 | 1 | 0.0 | 1.6 | 0.00 | 0.00 | 0.00 | 78 | 1019.0 |
| 20260510131947 | 20 | 1 | 0.0 | 1.6 | 0.00 | 0.00 | 0.00 | 75 | 1019.0 |
| 20260510131847 | 19 | 1 | 0.0 | 1.6 | 0.00 | 0.00 | 0.00 | 76 | 1019.0 |
| 20260510131749 | 19 | 1 | 0.0 | 1.6 | 0.00 | 0.00 | 0.00 | 78 | 1019.0 |
| 20260510131650 | 19 | 1 | 0.0 | 1.6 | 0.00 | 0.00 | 0.00 | 76 | 1019.1 |
| 20260510131549 | 19 | 1 | 0.0 | 1.6 | 0.00 | 0.00 | 0.00 | 77 | 1019.1 |
| 20260510131445 | 19 | 1 | 0.0 | 1.6 | 0.00 | 0.00 | 0.00 | 79 | 1019.0 |
| 20260510131343 | 19 | 359 | 0.0 | 0.0 | 0.00 | 0.00 | 0.00 | 81 | 1018.9 |
| 20260510131243 | 19 | 315 | 0.0 | 0.0 | 0.00 | 0.00 | 0.00 | 84 | 1019.0 |
| 20260510131143 | 18 | 315 | 0.0 | 0.0 | 0.00 | 0.00 | 0.00 | 85 | 1019.0 |
| 20260510131045 | 18 | 315 | 0.0 | 0.0 | 0.00 | 0.00 | 0.00 | 85 | 1019.1 |
| 20260510130945 | 18 | 315 | 0.0 | 1.6 | 0.00 | 0.00 | 0.00 | 85 | 1019.0 |
| 20260510130844 | 18 | 315 | 0.0 | 1.6 | 0.00 | 0.00 | 0.00 | 86 | 1019.0 |
| 20260510130744 | 18 | 315 | 0.0 | 1.6 | 0.00 | 0.00 | 0.00 | 84 | 1019.0 |
| 20260510130645 | 17 | 315 | 0.0 | 1.6 | 0.00 | 0.00 | 0.00 | 85 | 1019.0 |
| 20260510130543 | 17 | 315 | 0.0 | 1.6 | 0.00 | 0.00 | 0.00 | 82 | 1018.9 |
| 20260510130445 | 17 | 315 | 0.0 | 1.6 | 0.00 | 0.00 | 0.00 | 81 | 1018.9 |
| 20260510130343 | 17 | 315 | 0.0 | 1.6 | 0.00 | 0.00 | 0.00 | 83 | 1018.9 |
| 20260510130244 | 17 | 315 | 0.0 | 1.6 | 0.00 | 0.00 | 0.00 | 86 | 1018.9 |
| 20260510130144 | 17 | 315 | 0.0 | 1.6 | 0.00 | 0.00 | 0.00 | 86 | 1018.9 |
| 20260510130043 | 17 | 315 | 0.0 | 1.6 | 0.00 | 0.00 | 0.00 | 88 | 1018.9 |
| 20260510125943 | 16 | 299 | 0.0 | 1.6 | 0.00 | 0.00 | 0.00 | 86 | 1019.0 |
| 20260510125843 | 16 | 299 | 0.0 | 1.6 | 0.00 | 0.00 | 0.00 | 88 | 1018.9 |
| 20260510125743 | 16 | 299 | 0.0 | 1.6 | 0.00 | 0.00 | 0.00 | 87 | 1019.0 |
| 20260510125646 | 16 | 299 | 0.0 | 1.6 | 0.00 | 0.00 | 0.00 | 86 | 1019.0 |
| 20260510125539 | 16 | 298 | 0.0 | 1.6 | 0.00 | 0.00 | 0.00 | 89 | 1019.0 |
| 20260510125440 | 16 | 296 | 0.0 | 1.6 | 0.00 | 0.00 | 0.00 | 88 | 1019.0 |
| 20260510125404 | 16 | 11 | 0.0 | 1.6 | 0.00 | 0.00 | 0.00 | 90 | 1018.9 |
| 20260510125241 | 15 | 12 | 0.0 | 0.0 | 0.00 | 0.00 | 0.00 | 93 | 1019.0 |
| 20260510125140 | 15 | 12 | 0.0 | 0.0 | 0.00 | 0.00 | 0.00 | 93 | 1019.0 |
| 20260510125039 | 15 | 12 | 0.0 | 0.0 | 0.00 | 0.00 | 0.00 | 92 | 1019.0 |
| 20260510124940 | 15 | 12 | 0.0 | 0.0 | 0.00 | 0.00 | 0.00 | 93 | 1019.0 |
| 20260510124840 | 15 | 12 | 0.0 | 0.0 | 0.00 | 0.00 | 0.00 | 92 | 1019.0 |
| 20260510124740 | 15 | 12 | 0.0 | 1.6 | 0.00 | 0.00 | 0.00 | 92 | 1019.0 |
| 20260510124642 | 15 | 12 | 0.0 | 1.6 | 0.00 | 0.00 | 0.00 | 92 | 1019.0 |
| 20260510124539 | 15 | 12 | 0.0 | 1.6 | 0.00 | 0.00 | 0.00 | 93 | 1018.9 |
| 20260510124439 | 14 | 12 | 0.0 | 1.6 | 0.00 | 0.00 | 0.00 | 94 | 1018.9 |
| 20260510124339 | 14 | 12 | 0.0 | 1.6 | 0.00 | 0.00 | 0.00 | 93 | 1018.9 |
| 20260510124239 | 14 | 12 | 0.0 | 1.6 | 0.00 | 0.00 | 0.00 | 94 | 1018.9 |
| 20260510124139 | 14 | 12 | 0.0 | 1.6 | 0.00 | 0.00 | 0.00 | 95 | 1018.8 |
| 20260510124039 | 13 | 12 | 0.0 | 1.6 | 0.00 | 0.00 | 0.00 | 95 | 1019.0 |
| 20260510123941 | 13 | 12 | 0.0 | 1.6 | 0.00 | 0.00 | 0.00 | 96 | 1018.9 |
| 20260510123839 | 13 | 12 | 0.0 | 1.6 | 0.00 | 0.00 | 0.00 | 96 | 1018.9 |
| 20260510123742 | 13 | 12 | 0.0 | 1.6 | 0.00 | 0.00 | 0.00 | 97 | 1018.9 |
| 20260510123635 | 13 | 358 | 0.0 | 0.0 | 0.00 | 0.00 | 0.00 | 97 | 1018.9 |
| 20260510123536 | 13 | 358 | 0.0 | 0.0 | 0.00 | 0.00 | 0.00 | 97 | 1019.0 |
| 20260510123437 | 13 | 358 | 0.0 | 0.0 | 0.00 | 0.00 | 0.00 | 97 | 1018.8 |
| 20260510123403 | 13 | 358 | 0.0 | 0.0 | 0.00 | 0.00 | 0.00 | 98 | 1018.8 |
| 20260510123237 | 13 | 358 | 0.0 | 0.0 | 0.00 | 0.00 | 0.00 | 98 | 1018.7 |
| 20260510123135 | 13 | 358 | 0.0 | 0.0 | 0.00 | 0.00 | 0.00 | 98 | 1018.8 |
| 20260510123037 | 13 | 358 | 0.0 | 0.0 | 0.00 | 0.00 | 0.00 | 98 | 1018.8 |
| 20260510122935 | 13 | 358 | 0.0 | 0.0 | 0.00 | 0.00 | 0.00 | 98 | 1018.8 |
| 20260510122836 | 13 | 358 | 0.0 | 0.0 | 0.00 | 0.00 | 0.00 | 98 | 1018.8 |
| 20260510122736 | 13 | 358 | 0.0 | 0.0 | 0.00 | 0.00 | 0.00 | 99 | 1018.8 |
| 20260510122636 | 13 | 358 | 0.0 | 0.0 | 0.00 | 0.00 | 0.00 | 99 | 1018.8 |
| 20260510122537 | 13 | 358 | 0.0 | 0.0 | 0.00 | 0.00 | 0.00 | 99 | 1018.7 |
| 20260510122435 | 13 | 358 | 0.0 | 0.0 | 0.00 | 0.00 | 0.00 | 99 | 1018.7 |
| 20260510122337 | 13 | 358 | 0.0 | 0.0 | 0.00 | 0.00 | 0.00 | 99 | 1018.8 |
| 20260510122235 | 13 | 358 | 0.0 | 0.0 | 0.00 | 0.00 | 0.00 | 99 | 1018.8 |
| 20260510122137 | 13 | 358 | 0.0 | 0.0 | 0.00 | 0.00 | 0.00 | 99 | 1018.7 |
| 20260510122036 | 13 | 358 | 0.0 | 0.0 | 0.00 | 0.00 | 0.00 | 99 | 1018.8 |
| 20260510121935 | 13 | 358 | 0.0 | 0.0 | 0.00 | 0.00 | 0.00 | 99 | 1018.7 |
| 20260510121836 | 13 | 358 | 0.0 | 0.0 | 0.00 | 0.00 | 0.00 | 99 | 1018.7 |
| 20260510121731 | 13 | 358 | 0.0 | 0.0 | 0.00 | 0.00 | 0.00 | 99 | 1018.6 |
| 20260510121632 | 13 | 358 | 0.0 | 0.0 | 0.00 | 0.00 | 0.00 | 99 | 1018.7 |
| 20260510121531 | 13 | 358 | 0.0 | 0.0 | 0.00 | 0.00 | 0.00 | 99 | 1018.5 |
| 20260510121432 | 12 | 358 | 0.0 | 0.0 | 0.00 | 0.00 | 0.00 | 99 | 1018.6 |
| 20260510121333 | 12 | 358 | 0.0 | 0.0 | 0.00 | 0.00 | 0.00 | 99 | 1018.5 |
| 20260510121231 | 12 | 358 | 0.0 | 0.0 | 0.00 | 0.00 | 0.00 | 99 | 1018.5 |
| 20260510121132 | 12 | 358 | 0.0 | 0.0 | 0.00 | 0.00 | 0.00 | 99 | 1018.5 |
| 20260510121032 | 12 | 358 | 0.0 | 0.0 | 0.00 | 0.00 | 0.00 | 99 | 1018.4 |
| 20260510120931 | 12 | 358 | 0.0 | 0.0 | 0.00 | 0.00 | 0.00 | 99 | 1018.4 |
| 20260510120833 | 12 | 358 | 0.0 | 0.0 | 0.00 | 0.00 | 0.00 | 99 | 1018.4 |
| 20260510120731 | 12 | 358 | 0.0 | 0.0 | 0.00 | 0.00 | 0.00 | 99 | 1018.4 |
| 20260510120640 | 12 | 358 | 0.0 | 0.0 | 0.00 | 0.00 | 0.00 | 99 | 1018.4 |
| 20260510120624 | 12 | 358 | 0.0 | 0.0 | 0.00 | 0.00 | 0.00 | 99 | 1018.3 |
| 20260510120433 | 12 | 358 | 0.0 | 0.0 | 0.00 | 0.00 | 0.00 | 99 | 1018.3 |
| 20260510120402 | 12 | 358 | 0.0 | 0.0 | 0.00 | 0.00 | 0.00 | 99 | 1018.4 |
| 20260510120231 | 12 | 358 | 0.0 | 0.0 | 0.00 | 0.00 | 0.00 | 99 | 1018.3 |
| 20260510120133 | 12 | 358 | 0.0 | 0.0 | 0.00 | 0.00 | 0.00 | 99 | 1018.2 |
| 20260510120031 | 12 | 358 | 0.0 | 0.0 | 0.00 | 0.00 | 0.00 | 98 | 1018.2 |
| 20260510115933 | 12 | 358 | 0.0 | 0.0 | 0.00 | 0.00 | 0.00 | 98 | 1018.2 |
| 20260510115901 | 12 | 358 | 0.0 | 0.0 | 0.00 | 0.00 | 0.00 | 98 | 1018.2 |
| 20260510115730 | 12 | 358 | 0.0 | 0.0 | 0.00 | 0.00 | 0.00 | 98 | 1018.1 |
| 20260510115629 | 12 | 358 | 0.0 | 0.0 | 0.00 | 0.00 | 0.00 | 98 | 1018.1 |
| 20260510115611 | 12 | 358 | 0.0 | 0.0 | 0.00 | 0.00 | 0.00 | 98 | 1018.1 |
| 20260510115425 | 12 | 358 | 0.0 | 0.0 | 0.00 | 0.00 | 0.00 | 98 | 1018.1 |
| 20260510115355 | 12 | 358 | 0.0 | 0.0 | 0.00 | 0.00 | 0.00 | 99 | 1018.1 |
| 20260510115221 | 12 | 358 | 0.0 | 0.0 | 0.00 | 0.00 | 0.00 | 99 | 1018.0 |
| 20260510115120 | 12 | 358 | 0.0 | 0.0 | 0.00 | 0.00 | 0.00 | 98 | 1017.9 |
| 20260510115020 | 12 | 358 | 0.0 | 0.0 | 0.00 | 0.00 | 0.00 | 99 | 1017.9 |
| 20260510114920 | 12 | 358 | 0.0 | 0.0 | 0.00 | 0.00 | 0.00 | 99 | 1017.9 |
| 20260510114817 | 12 | 358 | 0.0 | 0.0 | 0.00 | 0.00 | 0.00 | 99 | 1017.9 |
| 20260510114718 | 12 | 358 | 0.0 | 0.0 | 0.00 | 0.00 | 0.00 | 98 | 1017.9 |
| 20260510114617 | 11 | 358 | 0.0 | 0.0 | 0.00 | 0.00 | 0.00 | 98 | 1017.9 |
| 20260510114515 | 11 | 358 | 0.0 | 0.0 | 0.00 | 0.00 | 0.00 | 98 | 1017.9 |
| 20260510114436 | 11 | 358 | 0.0 | 0.0 | 0.00 | 0.00 | 0.00 | 98 | 1017.8 |
| 20260510114428 | 11 | 358 | 0.0 | 0.0 | 0.00 | 0.00 | 0.00 | 98 | 1017.9 |
| 20260510114211 | 11 | 358 | 0.0 | 0.0 | 0.00 | 0.00 | 0.00 | 98 | 1017.8 |
| 20260510114112 | 11 | 358 | 0.0 | 0.0 | 0.00 | 0.00 | 0.00 | 98 | 1017.8 |
| 20260510114009 | 11 | 358 | 0.0 | 0.0 | 0.00 | 0.00 | 0.00 | 98 | 1017.8 |
| 20260510113907 | 11 | 358 | 0.0 | 0.0 | 0.00 | 0.00 | 0.00 | 98 | 1017.7 |
| 20260510113808 | 11 | 358 | 0.0 | 0.0 | 0.00 | 0.00 | 0.00 | 98 | 1017.8 |
| 20260510113705 | 11 | 358 | 0.0 | 0.0 | 0.00 | 0.00 | 0.00 | 98 | 1017.7 |
| 20260510113605 | 11 | 358 | 0.0 | 0.0 | 0.00 | 0.00 | 0.00 | 98 | 1017.6 |
| 20260510113504 | 11 | 358 | 0.0 | 0.0 | 0.00 | 0.00 | 0.00 | 98 | 1017.6 |
| 20260510113401 | 11 | 358 | 0.0 | 0.0 | 0.00 | 0.00 | 0.00 | 98 | 1017.6 |
| 20260510113303 | 11 | 358 | 0.0 | 0.0 | 0.00 | 0.00 | 0.00 | 98 | 1017.6 |
| 20260510113200 | 11 | 358 | 0.0 | 0.0 | 0.00 | 0.00 | 0.00 | 98 | 1017.6 |
| 20260510113100 | 11 | 358 | 0.0 | 0.0 | 0.00 | 0.00 | 0.00 | 98 | 1017.6 |
| 20260510112958 | 11 | 358 | 0.0 | 0.0 | 0.00 | 0.00 | 0.00 | 98 | 1017.6 |
| 20260510112856 | 11 | 358 | 0.0 | 0.0 | 0.00 | 0.00 | 0.00 | 98 | 1017.7 |
| 20260510112751 | 11 | 358 | 0.0 | 0.0 | 0.00 | 0.00 | 0.00 | 98 | 1017.6 |
| 20260510112651 | 11 | 358 | 0.0 | 0.0 | 0.00 | 0.00 | 0.00 | 98 | 1017.5 |
| 20260510112549 | 11 | 358 | 0.0 | 0.0 | 0.00 | 0.00 | 0.00 | 98 | 1017.5 |
| 20260510112450 | 11 | 358 | 0.0 | 0.0 | 0.00 | 0.00 | 0.00 | 98 | 1017.5 |
| 20260510112350 | 11 | 358 | 0.0 | 0.0 | 0.00 | 0.00 | 0.00 | 98 | 1017.5 |
| 20260510112250 | 11 | 358 | 0.0 | 0.0 | 0.00 | 0.00 | 0.00 | 98 | 1017.6 |
| 20260510112148 | 11 | 358 | 0.0 | 0.0 | 0.00 | 0.00 | 0.00 | 98 | 1017.5 |
| 20260510112048 | 11 | 358 | 0.0 | 0.0 | 0.00 | 0.00 | 0.00 | 98 | 1017.5 |
| 20260510111946 | 11 | 358 | 0.0 | 0.0 | 0.00 | 0.00 | 0.00 | 98 | 1017.5 |
| 20260510111843 | 11 | 358 | 0.0 | 0.0 | 0.00 | 0.00 | 0.00 | 98 | 1017.4 |
| 20260510111815 | 11 | 358 | 0.0 | 0.0 | 0.00 | 0.00 | 0.00 | 98 | 1017.4 |
| 20260510111642 | 11 | 358 | 0.0 | 0.0 | 0.00 | 0.00 | 0.00 | 98 | 1017.4 |
| 20260510111543 | 11 | 358 | 0.0 | 0.0 | 0.00 | 0.00 | 0.00 | 98 | 1017.4 |
| 20260510111439 | 11 | 358 | 0.0 | 0.0 | 0.00 | 0.00 | 0.00 | 98 | 1017.3 |
| 20260510111337 | 11 | 358 | 0.0 | 0.0 | 0.00 | 0.00 | 0.00 | 98 | 1017.3 |
| 20260510111238 | 11 | 358 | 0.0 | 0.0 | 0.00 | 0.00 | 0.00 | 98 | 1017.3 |
| 20260510111135 | 11 | 358 | 0.0 | 0.0 | 0.00 | 0.00 | 0.00 | 98 | 1017.3 |
| 20260510111039 | 11 | 358 | 0.0 | 0.0 | 0.00 | 0.00 | 0.00 | 98 | 1017.3 |
| 20260510110933 | 11 | 358 | 0.0 | 0.0 | 0.00 | 0.00 | 0.00 | 98 | 1017.3 |
| 20260510110831 | 11 | 358 | 0.0 | 0.0 | 0.00 | 0.00 | 0.00 | 98 | 1017.2 |
| 20260510110725 | 11 | 358 | 0.0 | 0.0 | 0.00 | 0.00 | 0.00 | 98 | 1017.3 |
| 20260510110626 | 11 | 358 | 0.0 | 0.0 | 0.00 | 0.00 | 0.00 | 97 | 1017.0 |
| 20260510110525 | 11 | 358 | 0.0 | 0.0 | 0.00 | 0.00 | 0.00 | 97 | 1017.2 |
| 20260510110426 | 11 | 358 | 0.0 | 0.0 | 0.00 | 0.00 | 0.00 | 97 | 1017.3 |
| 20260510110326 | 11 | 358 | 0.0 | 0.0 | 0.00 | 0.00 | 0.00 | 97 | 1017.0 |
| 20260510110219 | 11 | 358 | 0.0 | 0.0 | 0.00 | 0.00 | 0.00 | 97 | 1017.2 |
| 20260510110120 | 11 | 358 | 0.0 | 0.0 | 0.00 | 0.00 | 0.00 | 97 | 1017.2 |
| 20260510110019 | 11 | 358 | 0.0 | 0.0 | 0.00 | 0.00 | 0.00 | 97 | 1017.2 |
| 20260510105919 | 11 | 358 | 0.0 | 0.0 | 0.00 | 0.00 | 0.00 | 97 | 1017.2 |
| 20260510105820 | 11 | 358 | 0.0 | 0.0 | 0.00 | 0.00 | 0.00 | 97 | 1017.2 |
| 20260510105716 | 11 | 358 | 0.0 | 0.0 | 0.00 | 0.00 | 0.00 | 97 | 1017.2 |
| 20260510105615 | 11 | 358 | 0.0 | 0.0 | 0.00 | 0.00 | 0.00 | 97 | 1017.2 |
| 20260510105516 | 11 | 358 | 0.0 | 0.0 | 0.00 | 0.00 | 0.00 | 97 | 1017.2 |
| 20260510105415 | 11 | 358 | 0.0 | 0.0 | 0.00 | 0.00 | 0.00 | 97 | 1017.2 |
| 20260510105313 | 11 | 358 | 0.0 | 0.0 | 0.00 | 0.00 | 0.00 | 97 | 1017.2 |
| 20260510105214 | 11 | 358 | 0.0 | 0.0 | 0.00 | 0.00 | 0.00 | 97 | 1017.2 |
| 20260510105112 | 11 | 358 | 0.0 | 0.0 | 0.00 | 0.00 | 0.00 | 97 | 1017.2 |
| 20260510105013 | 11 | 358 | 0.0 | 0.0 | 0.00 | 0.00 | 0.00 | 97 | 1017.2 |
| 20260510104910 | 11 | 358 | 0.0 | 0.0 | 0.00 | 0.00 | 0.00 | 97 | 1017.2 |
| 20260510104807 | 11 | 358 | 0.0 | 0.0 | 0.00 | 0.00 | 0.00 | 97 | 1017.2 |
| 20260510104708 | 11 | 358 | 0.0 | 0.0 | 0.00 | 0.00 | 0.00 | 97 | 1017.2 |
| 20260510104605 | 11 | 358 | 0.0 | 0.0 | 0.00 | 0.00 | 0.00 | 97 | 1017.0 |
| 20260510104507 | 11 | 358 | 0.0 | 1.6 | 0.00 | 0.00 | 0.00 | 97 | 1017.2 |
| 20260510104404 | 11 | 358 | 0.0 | 1.6 | 0.00 | 0.00 | 0.00 | 97 | 1017.2 |
| 20260510104302 | 11 | 358 | 0.0 | 1.6 | 0.00 | 0.00 | 0.00 | 97 | 1017.2 |
| 20260510104200 | 11 | 358 | 0.0 | 1.6 | 0.00 | 0.00 | 0.00 | 97 | 1017.0 |
| 20260510104059 | 11 | 358 | 0.0 | 1.6 | 0.00 | 0.00 | 0.00 | 97 | 1016.9 |
| 20260510103958 | 11 | 358 | 0.0 | 1.6 | 0.00 | 0.00 | 0.00 | 97 | 1016.9 |
| 20260510103858 | 11 | 358 | 0.0 | 1.6 | 0.00 | 0.00 | 0.00 | 97 | 1016.9 |
| 20260510103756 | 11 | 358 | 0.0 | 1.6 | 0.00 | 0.00 | 0.00 | 97 | 1016.8 |
| 20260510103657 | 11 | 358 | 0.0 | 1.6 | 0.00 | 0.00 | 0.00 | 97 | 1016.7 |
| 20260510103553 | 11 | 358 | 0.0 | 1.6 | 0.00 | 0.00 | 0.00 | 97 | 1016.8 |
| 20260510103453 | 11 | 358 | 0.0 | 0.0 | 0.00 | 0.00 | 0.00 | 97 | 1016.8 |
| 20260510103352 | 11 | 358 | 0.0 | 0.0 | 0.00 | 0.00 | 0.00 | 97 | 1016.7 |
| 20260510103250 | 11 | 358 | 0.0 | 0.0 | 0.00 | 0.00 | 0.00 | 97 | 1016.7 |
| 20260510103150 | 11 | 358 | 0.0 | 0.0 | 0.00 | 0.00 | 0.00 | 97 | 1016.7 |
| 20260510103047 | 11 | 358 | 0.0 | 0.0 | 0.00 | 0.00 | 0.00 | 97 | 1016.6 |
| 20260510102947 | 11 | 358 | 0.0 | 0.0 | 0.00 | 0.00 | 0.00 | 97 | 1016.7 |
| 20260510102846 | 11 | 358 | 0.0 | 0.0 | 0.00 | 0.00 | 0.00 | 97 | 1016.7 |
| 20260510102744 | 11 | 358 | 0.0 | 0.0 | 0.00 | 0.00 | 0.00 | 97 | 1016.6 |
| 20260510102642 | 11 | 358 | 0.0 | 0.0 | 0.00 | 0.00 | 0.00 | 97 | 1016.7 |
| 20260510102542 | 11 | 358 | 0.0 | 0.0 | 0.00 | 0.00 | 0.00 | 97 | 1016.6 |
| 20260510102441 | 11 | 358 | 0.0 | 0.0 | 0.00 | 0.00 | 0.00 | 97 | 1016.6 |
| 20260510102340 | 11 | 358 | 0.0 | 0.0 | 0.00 | 0.00 | 0.00 | 97 | 1016.7 |
| 20260510102238 | 11 | 358 | 0.0 | 0.0 | 0.00 | 0.00 | 0.00 | 97 | 1016.6 |
| 20260510102206 | 11 | 358 | 0.0 | 0.0 | 0.00 | 0.00 | 0.00 | 97 | 1016.6 |
| 20260510102037 | 11 | 358 | 0.0 | 0.0 | 0.00 | 0.00 | 0.00 | 97 | 1016.6 |
| 20260510101935 | 11 | 358 | 0.0 | 0.0 | 0.00 | 0.00 | 0.00 | 97 | 1016.6 |
| 20260510101834 | 11 | 358 | 0.0 | 0.0 | 0.00 | 0.00 | 0.00 | 97 | 1016.6 |
| 20260510101732 | 11 | 358 | 0.0 | 0.0 | 0.00 | 0.00 | 0.00 | 97 | 1016.5 |
| 20260510101703 | 11 | 358 | 0.0 | 0.0 | 0.00 | 0.00 | 0.00 | 97 | 1016.5 |
| 20260510101529 | 12 | 358 | 0.0 | 0.0 | 0.00 | 0.00 | 0.00 | 97 | 1016.6 |
| 20260510101429 | 12 | 358 | 0.0 | 0.0 | 0.00 | 0.00 | 0.00 | 97 | 1016.6 |
| 20260510101328 | 12 | 358 | 0.0 | 0.0 | 0.00 | 0.00 | 0.00 | 97 | 1016.6 |
| 20260510101226 | 12 | 358 | 0.0 | 0.0 | 0.00 | 0.00 | 0.00 | 97 | 1016.5 |
| 20260510101121 | 12 | 358 | 0.0 | 0.0 | 0.00 | 0.00 | 0.00 | 97 | 1016.4 |
| 20260510101021 | 12 | 358 | 0.0 | 0.0 | 0.00 | 0.00 | 0.00 | 97 | 1016.6 |
| 20260510100922 | 12 | 358 | 0.0 | 0.0 | 0.00 | 0.00 | 0.00 | 97 | 1016.6 |
| 20260510100823 | 12 | 358 | 0.0 | 0.0 | 0.00 | 0.00 | 0.00 | 97 | 1016.5 |
| 20260510100719 | 12 | 358 | 0.0 | 0.0 | 0.00 | 0.00 | 0.00 | 97 | 1016.5 |
| 20260510100619 | 12 | 358 | 0.0 | 0.0 | 0.00 | 0.00 | 0.00 | 97 | 1016.5 |
| 20260510100519 | 12 | 358 | 0.0 | 0.0 | 0.00 | 0.00 | 0.00 | 97 | 1016.6 |
| 20260510100418 | 12 | 358 | 0.0 | 0.0 | 0.00 | 0.00 | 0.00 | 97 | 1016.6 |
| 20260510100315 | 12 | 358 | 0.0 | 0.0 | 0.00 | 0.00 | 0.00 | 97 | 1016.5 |
| 20260510100214 | 12 | 358 | 0.0 | 0.0 | 0.00 | 0.00 | 0.00 | 97 | 1016.5 |
| 20260510100114 | 12 | 358 | 0.0 | 0.0 | 0.00 | 0.00 | 0.00 | 97 | 1016.5 |
| 20260510100011 | 12 | 358 | 0.0 | 0.0 | 0.00 | 0.00 | 0.00 | 97 | 1016.5 |
| 20260510095912 | 12 | 358 | 0.0 | 0.0 | 0.00 | 0.00 | 0.00 | 97 | 1016.5 |
| 20260510095809 | 12 | 358 | 0.0 | 0.0 | 0.00 | 0.00 | 0.00 | 97 | 1016.4 |
| 20260510095708 | 12 | 358 | 0.0 | 0.0 | 0.00 | 0.00 | 0.00 | 97 | 1016.4 |
| 20260510095607 | 12 | 358 | 0.0 | 0.0 | 0.00 | 0.00 | 0.00 | 97 | 1016.5 |
| 20260510095505 | 12 | 358 | 0.0 | 0.0 | 0.00 | 0.00 | 0.00 | 97 | 1016.4 |
| 20260510095406 | 12 | 358 | 0.0 | 0.0 | 0.00 | 0.00 | 0.00 | 97 | 1016.3 |
| 20260510095305 | 12 | 358 | 0.0 | 0.0 | 0.00 | 0.00 | 0.00 | 97 | 1016.3 |
| 20260510095202 | 12 | 358 | 0.0 | 0.0 | 0.00 | 0.00 | 0.00 | 97 | 1016.3 |
| 20260510095131 | 12 | 358 | 0.0 | 0.0 | 0.00 | 0.00 | 0.00 | 97 | 1016.3 |
| 20260510095001 | 12 | 358 | 0.0 | 0.0 | 0.00 | 0.00 | 0.00 | 97 | 1016.3 |
| 20260510094901 | 12 | 358 | 0.0 | 0.0 | 0.00 | 0.00 | 0.00 | 97 | 1016.3 |
| 20260510094759 | 12 | 358 | 0.0 | 0.0 | 0.00 | 0.00 | 0.00 | 97 | 1016.3 |
| 20260510094656 | 12 | 358 | 0.0 | 0.0 | 0.00 | 0.00 | 0.00 | 97 | 1016.2 |
| 20260510094556 | 12 | 0 | 0.0 | 0.0 | 0.00 | 0.00 | 0.00 | 97 | 1016.3 |
| 20260510094453 | 12 | 0 | 0.0 | 0.0 | 0.00 | 0.00 | 0.00 | 97 | 1016.3 |
| 20260510094354 | 12 | 0 | 0.0 | 0.0 | 0.00 | 0.00 | 0.00 | 97 | 1016.2 |
| 20260510094252 | 12 | 0 | 0.0 | 0.0 | 0.00 | 0.00 | 0.00 | 97 | 1016.2 |
| 20260510094150 | 12 | 0 | 0.0 | 0.0 | 0.00 | 0.00 | 0.00 | 97 | 1016.3 |
| 20260510094050 | 12 | 0 | 0.0 | 0.0 | 0.00 | 0.00 | 0.00 | 97 | 1016.2 |
| 20260510093947 | 12 | 0 | 0.0 | 3.2 | 0.00 | 0.00 | 0.00 | 97 | 1016.3 |
| 20260510093848 | 12 | 0 | 0.0 | 3.2 | 0.00 | 0.00 | 0.00 | 96 | 1016.3 |
| 20260510093745 | 12 | 0 | 0.0 | 3.2 | 0.00 | 0.00 | 0.00 | 96 | 1016.2 |
| 20260510093644 | 12 | 0 | 0.0 | 3.2 | 0.00 | 0.00 | 0.00 | 96 | 1016.2 |
| 20260510093544 | 12 | 0 | 0.0 | 3.2 | 0.00 | 0.00 | 0.00 | 96 | 1016.2 |
| 20260510093441 | 12 | 0 | 0.0 | 3.2 | 0.00 | 0.00 | 0.00 | 96 | 1016.3 |
| 20260510093343 | 12 | 0 | 0.0 | 3.2 | 0.00 | 0.00 | 0.00 | 96 | 1016.2 |
| 20260510093239 | 12 | 0 | 0.0 | 3.2 | 0.00 | 0.00 | 0.00 | 96 | 1016.2 |
| 20260510093138 | 12 | 0 | 0.0 | 3.2 | 0.00 | 0.00 | 0.00 | 96 | 1016.2 |
| 20260510093036 | 12 | 0 | 0.0 | 3.2 | 0.00 | 0.00 | 0.00 | 96 | 1016.3 |
| 20260510092935 | 12 | 318 | 0.0 | 0.0 | 0.00 | 0.00 | 0.00 | 96 | 1016.2 |
| 20260510092835 | 12 | 318 | 0.0 | 0.0 | 0.00 | 0.00 | 0.00 | 96 | 1016.1 |
| 20260510092733 | 12 | 318 | 0.0 | 0.0 | 0.00 | 0.00 | 0.00 | 96 | 1016.2 |
| 20260510092633 | 12 | 318 | 0.0 | 0.0 | 0.00 | 0.00 | 0.00 | 96 | 1016.2 |
| 20260510092600 | 12 | 318 | 0.0 | 0.0 | 0.00 | 0.00 | 0.00 | 96 | 1016.2 |
| 20260510092426 | 12 | 318 | 0.0 | 0.0 | 0.00 | 0.00 | 0.00 | 96 | 1016.2 |
| 20260510092326 | 12 | 318 | 0.0 | 0.0 | 0.00 | 0.00 | 0.00 | 95 | 1016.2 |
| 20260510092226 | 12 | 318 | 0.0 | 0.0 | 0.00 | 0.00 | 0.00 | 95 | 1016.1 |
| 20260510092125 | 12 | 318 | 0.0 | 0.0 | 0.00 | 0.00 | 0.00 | 96 | 1016.2 |
| 20260510092019 | 12 | 318 | 0.0 | 1.6 | 0.00 | 0.00 | 0.00 | 96 | 1016.1 |
| 20260510091919 | 12 | 318 | 0.0 | 1.6 | 0.00 | 0.00 | 0.00 | 96 | 1016.1 |
| 20260510091819 | 12 | 318 | 0.0 | 1.6 | 0.00 | 0.00 | 0.00 | 96 | 1016.1 |
| 20260510091620 | 12 | 318 | 0.0 | 1.6 | 0.00 | 0.00 | 0.00 | 96 | 1016.1 |
| 20260510091513 | 12 | 318 | 0.0 | 1.6 | 0.00 | 0.00 | 0.00 | 96 | 1016.1 |
| 20260510091414 | 12 | 318 | 0.0 | 1.6 | 0.00 | 0.00 | 0.00 | 96 | 1016.2 |
| 20260510091313 | 12 | 318 | 0.0 | 1.6 | 0.00 | 0.00 | 0.00 | 96 | 1016.1 |
| 20260510091213 | 12 | 317 | 0.0 | 1.6 | 0.00 | 0.00 | 0.00 | 96 | 1016.1 |
| 20260510091114 | 12 | 318 | 0.0 | 1.6 | 0.00 | 0.00 | 0.00 | 96 | 1016.1 |
| 20260510091014 | 12 | 300 | 0.0 | 1.6 | 0.00 | 0.00 | 0.00 | 95 | 1016.1 |
| 20260510090911 | 12 | 299 | 0.0 | 1.6 | 0.00 | 0.00 | 0.00 | 95 | 1016.0 |
| 20260510090812 | 12 | 299 | 0.0 | 1.6 | 0.00 | 0.00 | 0.00 | 95 | 1016.1 |
| 20260510090710 | 12 | 299 | 0.0 | 1.6 | 0.00 | 0.00 | 0.00 | 95 | 1016.1 |
| 20260510090608 | 12 | 299 | 0.0 | 0.0 | 0.00 | 0.00 | 0.00 | 95 | 1016.0 |
| 20260510090508 | 12 | 299 | 0.0 | 0.0 | 0.00 | 0.00 | 0.00 | 95 | 1016.1 |
| 20260510090405 | 12 | 299 | 0.0 | 0.0 | 0.00 | 0.00 | 0.00 | 95 | 1016.1 |
| 20260510090306 | 12 | 299 | 0.0 | 0.0 | 0.00 | 0.00 | 0.00 | 95 | 1016.0 |
| 20260510090204 | 12 | 299 | 0.0 | 0.0 | 0.00 | 0.00 | 0.00 | 95 | 1016.2 |
| 20260510090002 | 12 | 299 | 0.0 | 0.0 | 0.00 | 0.00 | 0.00 | 95 | 1016.1 |
| 20260510085859 | 12 | 299 | 0.0 | 0.0 | 0.00 | 0.00 | 0.00 | 94 | 1016.1 |
| 20260510085759 | 12 | 299 | 0.0 | 0.0 | 0.00 | 0.00 | 0.00 | 94 | 1016.1 |
| 20260510085658 | 12 | 299 | 0.0 | 0.0 | 0.00 | 0.00 | 0.00 | 95 | 1016.1 |
| 20260510085556 | 12 | 299 | 0.0 | 0.0 | 0.00 | 0.00 | 0.00 | 95 | 1016.0 |
| 20260510085528 | 12 | 299 | 0.0 | 0.0 | 0.00 | 0.00 | 0.00 | 95 | 1016.1 |
| 20260510085352 | 13 | 299 | 0.0 | 0.0 | 0.00 | 0.00 | 0.00 | 95 | 1016.1 |
| 20260510085254 | 13 | 299 | 0.0 | 0.0 | 0.00 | 0.00 | 0.00 | 95 | 1016.0 |
| 20260510085152 | 13 | 299 | 0.0 | 0.0 | 0.00 | 0.00 | 0.00 | 94 | 1016.1 |
| 20260510085050 | 13 | 299 | 0.0 | 0.0 | 0.00 | 0.00 | 0.00 | 94 | 1016.1 |
| 20260510084943 | 13 | 300 | 0.0 | 0.0 | 0.00 | 0.00 | 0.00 | 94 | 1016.0 |
| 20260510084845 | 13 | 299 | 0.0 | 0.0 | 0.00 | 0.00 | 0.00 | 94 | 1016.1 |
| 20260510084742 | 13 | 299 | 0.0 | 0.0 | 0.00 | 0.00 | 0.00 | 94 | 1016.1 |
| 20260510084644 | 13 | 300 | 0.0 | 0.0 | 0.00 | 0.00 | 0.00 | 94 | 1016.1 |
| 20260510084543 | 13 | 299 | 0.0 | 0.0 | 0.00 | 0.00 | 0.00 | 94 | 1016.0 |
| 20260510084439 | 13 | 299 | 0.0 | 0.0 | 0.00 | 0.00 | 0.00 | 94 | 1016.0 |
| 20260510084340 | 13 | 299 | 0.0 | 0.0 | 0.00 | 0.00 | 0.00 | 93 | 1016.0 |
| 20260510084241 | 13 | 299 | 0.0 | 0.0 | 0.00 | 0.00 | 0.00 | 93 | 1016.0 |
| 20260510084140 | 13 | 299 | 0.0 | 0.0 | 0.00 | 0.00 | 0.00 | 93 | 1016.0 |
| 20260510084038 | 13 | 299 | 0.0 | 0.0 | 0.00 | 0.00 | 0.00 | 93 | 1015.9 |
| 20260510083936 | 13 | 300 | 0.0 | 0.0 | 0.00 | 0.00 | 0.00 | 93 | 1016.0 |
| 20260510083835 | 13 | 299 | 0.0 | 0.0 | 0.00 | 0.00 | 0.00 | 93 | 1016.0 |
| 20260510083735 | 13 | 299 | 0.0 | 0.0 | 0.00 | 0.00 | 0.00 | 93 | 1016.0 |
| 20260510083634 | 13 | 299 | 0.0 | 1.6 | 0.00 | 0.00 | 0.00 | 93 | 1015.9 |
| 20260510083532 | 13 | 299 | 0.0 | 1.6 | 0.00 | 0.00 | 0.00 | 93 | 1015.9 |
| 20260510083424 | 13 | 299 | 0.0 | 1.6 | 0.00 | 0.00 | 0.00 | 93 | 1015.9 |
| 20260510083326 | 13 | 299 | 0.0 | 1.6 | 0.00 | 0.00 | 0.00 | 93 | 1015.8 |
| 20260510083226 | 13 | 299 | 0.0 | 1.6 | 0.00 | 0.00 | 0.00 | 93 | 1015.8 |
| 20260510083127 | 13 | 299 | 0.0 | 1.6 | 0.00 | 0.00 | 0.00 | 93 | 1015.8 |
| 20260510083025 | 13 | 299 | 0.0 | 1.6 | 0.00 | 0.00 | 0.00 | 93 | 1015.8 |
| 20260510082921 | 13 | 299 | 0.0 | 1.6 | 0.00 | 0.00 | 0.00 | 93 | 1015.8 |
| 20260510082821 | 13 | 299 | 0.0 | 1.6 | 0.00 | 0.00 | 0.00 | 92 | 1015.8 |
| 20260510082723 | 13 | 299 | 0.0 | 1.6 | 0.00 | 0.00 | 0.00 | 92 | 1015.8 |
| 20260510082622 | 13 | 299 | 0.0 | 1.6 | 0.00 | 0.00 | 0.00 | 93 | 1015.7 |
| 20260510082520 | 13 | 299 | 0.0 | 1.6 | 0.00 | 0.00 | 0.00 | 93 | 1015.7 |
| 20260510082450 | 13 | 299 | 0.0 | 1.6 | 0.00 | 0.00 | 0.00 | 93 | 1015.7 |
| 20260510082313 | 13 | 299 | 0.0 | 0.0 | 0.00 | 0.00 | 0.00 | 93 | 1015.6 |
| 20260510082212 | 13 | 299 | 0.0 | 0.0 | 0.00 | 0.00 | 0.00 | 93 | 1015.6 |
| 20260510082113 | 13 | 299 | 0.0 | 0.0 | 0.00 | 0.00 | 0.00 | 92 | 1015.6 |
| 20260510082013 | 13 | 299 | 0.0 | 0.0 | 0.00 | 0.00 | 0.00 | 92 | 1015.6 |
| 20260510081911 | 13 | 300 | 0.0 | 0.0 | 0.00 | 0.00 | 0.00 | 92 | 1015.7 |
| 20260510081810 | 13 | 299 | 0.0 | 0.0 | 0.00 | 0.00 | 0.00 | 91 | 1015.6 |
| 20260510081711 | 13 | 299 | 0.0 | 0.0 | 0.00 | 0.00 | 0.00 | 91 | 1015.7 |
| 20260510081610 | 13 | 299 | 0.0 | 0.0 | 0.00 | 0.00 | 0.00 | 91 | 1015.6 |
| 20260510081507 | 13 | 299 | 0.0 | 0.0 | 0.00 | 0.00 | 0.00 | 91 | 1015.7 |
| 20260510081403 | 14 | 299 | 0.0 | 0.0 | 0.00 | 0.00 | 0.00 | 91 | 1015.6 |
| 20260510081304 | 14 | 299 | 0.0 | 0.0 | 0.00 | 0.00 | 0.00 | 91 | 1015.6 |
| 20260510081204 | 14 | 299 | 0.0 | 0.0 | 0.00 | 0.00 | 0.00 | 91 | 1015.5 |
| 20260510081104 | 14 | 299 | 0.0 | 0.0 | 0.00 | 0.00 | 0.00 | 91 | 1015.6 |
| 20260510081002 | 14 | 299 | 0.0 | 0.0 | 0.00 | 0.00 | 0.00 | 91 | 1015.5 |
| 20260510080854 | 14 | 300 | 0.0 | 1.6 | 0.00 | 0.00 | 0.00 | 91 | 1015.6 |
| 20260510080756 | 14 | 299 | 0.0 | 1.6 | 0.00 | 0.00 | 0.00 | 91 | 1015.5 |
| 20260510080656 | 14 | 299 | 0.0 | 1.6 | 0.00 | 0.00 | 0.00 | 91 | 1015.5 |
| 20260510080556 | 14 | 299 | 0.0 | 1.6 | 0.00 | 0.00 | 0.00 | 91 | 1015.5 |
| 20260510080456 | 14 | 299 | 0.0 | 1.6 | 0.00 | 0.00 | 0.00 | 90 | 1015.4 |
| 20260510080425 | 14 | 300 | 0.0 | 1.6 | 0.00 | 0.00 | 0.00 | 90 | 1015.4 |
| 20260510080253 | 14 | 299 | 0.0 | 3.2 | 0.00 | 0.00 | 0.00 | 91 | 1015.4 |
| 20260510080210 | 14 | 299 | 0.0 | 3.2 | 0.00 | 0.00 | 0.00 | 90 | 1015.4 |
| 20260510080202 | 14 | 299 | 0.0 | 3.2 | 0.00 | 0.00 | 0.00 | 90 | 1015.4 |
| 20260510075949 | 14 | 299 | 0.0 | 3.2 | 0.00 | 0.00 | 0.00 | 90 | 1015.4 |
| 20260510075845 | 14 | 299 | 0.0 | 3.2 | 0.00 | 0.00 | 0.00 | 90 | 1015.5 |
| 20260510075745 | 14 | 299 | 0.0 | 3.2 | 0.00 | 0.00 | 0.00 | 90 | 1015.4 |
| 20260510075646 | 14 | 335 | 0.0 | 3.2 | 0.00 | 0.00 | 0.00 | 91 | 1015.4 |
| 20260510075546 | 14 | 21 | 0.0 | 3.2 | 0.00 | 0.00 | 0.00 | 91 | 1015.5 |
| 20260510075444 | 14 | 20 | 0.0 | 3.2 | 0.00 | 0.00 | 0.00 | 92 | 1015.5 |
| 20260510075342 | 14 | 21 | 0.0 | 3.2 | 0.00 | 0.00 | 0.00 | 92 | 1015.5 |
| 20260510075241 | 14 | 271 | 0.0 | 1.6 | 0.00 | 0.00 | 0.00 | 91 | 1015.3 |
| 20260510075142 | 14 | 271 | 0.0 | 1.6 | 0.00 | 0.00 | 0.00 | 92 | 1015.4 |
| 20260510075040 | 14 | 279 | 0.0 | 1.6 | 0.00 | 0.00 | 0.00 | 93 | 1015.4 |
| 20260510074938 | 14 | 279 | 0.0 | 1.6 | 0.00 | 0.00 | 0.00 | 93 | 1015.3 |
| 20260510074836 | 14 | 279 | 0.0 | 1.6 | 0.00 | 0.00 | 0.00 | 94 | 1015.4 |
| 20260510074734 | 14 | 279 | 0.0 | 1.6 | 0.00 | 0.00 | 0.00 | 94 | 1015.4 |
| 20260510074635 | 13 | 279 | 0.0 | 1.6 | 0.00 | 0.00 | 0.00 | 96 | 1015.3 |
| 20260510074534 | 13 | 280 | 0.0 | 1.6 | 0.00 | 0.00 | 0.00 | 96 | 1015.4 |
| 20260510074431 | 13 | 281 | 0.0 | 1.6 | 0.00 | 0.00 | 0.00 | 96 | 1015.4 |
| 20260510074325 | 13 | 281 | 0.0 | 1.6 | 0.00 | 0.00 | 0.00 | 97 | 1015.4 |
| 20260510074226 | 13 | 281 | 0.0 | 1.6 | 0.00 | 0.00 | 0.00 | 97 | 1015.3 |
| 20260510074124 | 13 | 257 | 0.0 | 1.6 | 0.00 | 0.00 | 0.00 | 97 | 1015.4 |
| 20260510074026 | 13 | 258 | 0.0 | 1.6 | 0.00 | 0.00 | 0.00 | 97 | 1015.3 |
| 20260510073926 | 13 | 188 | 0.0 | 0.0 | 0.00 | 0.00 | 0.00 | 97 | 1015.4 |
| 20260510073856 | 13 | 188 | 0.0 | 0.0 | 0.00 | 0.00 | 0.00 | 97 | 1015.3 |
| 20260510073720 | 13 | 188 | 0.0 | 0.0 | 0.00 | 0.00 | 0.00 | 97 | 1015.4 |
| 20260510073621 | 13 | 188 | 0.0 | 0.0 | 0.00 | 0.00 | 0.00 | 97 | 1015.3 |
| 20260510073519 | 13 | 188 | 0.0 | 0.0 | 0.00 | 0.00 | 0.00 | 97 | 1015.3 |
| 20260510073420 | 13 | 188 | 0.0 | 0.0 | 0.00 | 0.00 | 0.00 | 97 | 1015.4 |
| 20260510073319 | 13 | 188 | 0.0 | 0.0 | 0.00 | 0.00 | 0.00 | 97 | 1015.3 |
| 20260510073218 | 13 | 188 | 0.0 | 0.0 | 0.00 | 0.00 | 0.00 | 97 | 1015.4 |
| 20260510073119 | 13 | 188 | 0.0 | 0.0 | 0.00 | 0.00 | 0.00 | 97 | 1015.4 |
| 20260510073016 | 13 | 188 | 0.0 | 0.0 | 0.00 | 0.00 | 0.00 | 97 | 1015.3 |
| 20260510072913 | 14 | 186 | 0.0 | 0.0 | 0.00 | 0.00 | 0.00 | 97 | 1015.4 |
| 20260510072808 | 14 | 186 | 0.0 | 0.0 | 0.00 | 0.00 | 0.00 | 97 | 1015.3 |
| 20260510072707 | 13 | 186 | 0.0 | 0.0 | 0.00 | 0.00 | 0.00 | 97 | 1015.4 |
| 20260510072607 | 13 | 176 | 0.0 | 0.0 | 0.00 | 0.00 | 0.00 | 97 | 1015.3 |
| 20260510072506 | 14 | 176 | 0.0 | 0.0 | 0.00 | 0.00 | 0.00 | 97 | 1015.2 |
| 20260510072301 | 13 | 165 | 0.0 | 0.0 | 0.00 | 0.00 | 0.00 | 97 | 1015.3 |
| 20260510072200 | 14 | 166 | 0.0 | 0.0 | 0.00 | 0.00 | 0.00 | 97 | 1015.2 |
| 20260510072102 | 14 | 166 | 0.0 | 0.0 | 0.00 | 0.00 | 0.00 | 97 | 1015.2 |
| 20260510072001 | 14 | 166 | 0.0 | 0.0 | 0.00 | 0.00 | 0.00 | 97 | 1015.2 |
| 20260510071901 | 14 | 165 | 0.0 | 0.0 | 0.00 | 0.00 | 0.00 | 97 | 1015.1 |
| 20260510071758 | 14 | 165 | 0.0 | 0.0 | 0.00 | 0.00 | 0.00 | 97 | 1015.2 |
| 20260510071657 | 14 | 165 | 0.0 | 0.0 | 0.00 | 0.00 | 0.00 | 97 | 1015.1 |
| 20260510071558 | 14 | 166 | 0.0 | 0.0 | 0.00 | 0.00 | 0.00 | 97 | 1015.2 |
| 20260510071458 | 14 | 166 | 0.0 | 0.0 | 0.00 | 0.00 | 0.00 | 97 | 1015.2 |
| 20260510071356 | 14 | 166 | 0.0 | 0.0 | 0.00 | 0.00 | 0.00 | 97 | 1015.1 |
| 20260510071330 | 14 | 166 | 0.0 | 0.0 | 0.00 | 0.00 | 0.00 | 97 | 1015.1 |
| 20260510071149 | 14 | 166 | 0.0 | 0.0 | 0.00 | 0.00 | 0.00 | 97 | 1015.2 |
| 20260510071049 | 14 | 165 | 0.0 | 0.0 | 0.00 | 0.00 | 0.00 | 97 | 1015.1 |
| 20260510070949 | 14 | 165 | 0.0 | 0.0 | 0.00 | 0.00 | 0.00 | 97 | 1015.2 |
| 20260510070849 | 14 | 165 | 0.0 | 0.0 | 0.00 | 0.00 | 0.00 | 97 | 1015.2 |
| 20260510070743 | 14 | 165 | 0.0 | 0.0 | 0.00 | 0.00 | 0.00 | 97 | 1015.2 |
| 20260510070643 | 14 | 165 | 0.0 | 0.0 | 0.00 | 0.00 | 0.00 | 97 | 1015.3 |
| 20260510070542 | 14 | 166 | 0.0 | 0.0 | 0.00 | 0.00 | 0.00 | 97 | 1015.4 |
| 20260510070444 | 14 | 166 | 0.0 | 0.0 | 0.00 | 0.00 | 0.00 | 97 | 1015.2 |
| 20260510070344 | 14 | 153 | 0.0 | 0.0 | 0.00 | 0.00 | 0.00 | 97 | 1015.2 |
| 20260510070244 | 14 | 153 | 0.0 | 1.6 | 0.00 | 0.00 | 0.00 | 97 | 1015.3 |
| 20260510070141 | 14 | 153 | 0.0 | 1.6 | 0.00 | 0.00 | 0.00 | 97 | 1015.2 |
| 20260510070041 | 14 | 153 | 0.0 | 1.6 | 0.00 | 0.00 | 0.00 | 97 | 1015.3 |
| 20260510065940 | 14 | 153 | 0.0 | 1.6 | 0.00 | 0.00 | 0.00 | 97 | 1015.3 |
| 20260510065731 | 14 | 153 | 0.0 | 1.6 | 0.00 | 0.00 | 0.00 | 97 | 1015.3 |
| 20260510065631 | 14 | 153 | 0.0 | 1.6 | 0.00 | 0.00 | 0.00 | 97 | 1015.4 |
| 20260510065531 | 14 | 153 | 0.0 | 1.6 | 0.00 | 0.00 | 0.00 | 97 | 1015.3 |
| 20260510065431 | 14 | 153 | 0.0 | 1.6 | 0.00 | 0.00 | 0.00 | 97 | 1015.3 |
| 20260510065332 | 14 | 256 | 0.0 | 1.6 | 0.00 | 0.00 | 0.00 | 97 | 1015.4 |
| 20260510065126 | 14 | 341 | 0.0 | 0.0 | 0.00 | 0.00 | 0.00 | 96 | 1015.3 |
| 20260510065025 | 14 | 340 | 0.0 | 0.0 | 0.00 | 0.00 | 0.00 | 97 | 1015.3 |
| 20260510064926 | 14 | 340 | 0.0 | 0.0 | 0.00 | 0.00 | 0.00 | 97 | 1015.4 |
| 20260510064826 | 14 | 341 | 0.0 | 1.6 | 0.00 | 0.00 | 0.00 | 97 | 1015.3 |
| 20260510064622 | 14 | 340 | 0.0 | 1.6 | 0.00 | 0.00 | 0.00 | 96 | 1015.3 |
| 20260510064520 | 14 | 340 | 0.0 | 1.6 | 0.00 | 0.00 | 0.00 | 96 | 1015.3 |
| 20260510064419 | 14 | 341 | 0.0 | 1.6 | 0.00 | 0.00 | 0.00 | 96 | 1015.3 |
| 20260510064335 | 14 | 340 | 0.0 | 1.6 | 0.00 | 0.00 | 0.00 | 96 | 1015.3 |
| 20260510064212 | 14 | 341 | 0.0 | 1.6 | 0.00 | 0.00 | 0.00 | 96 | 1015.4 |
| 20260510064112 | 14 | 340 | 0.0 | 1.6 | 0.00 | 0.00 | 0.00 | 96 | 1015.3 |
| 20260510064014 | 15 | 340 | 0.0 | 1.6 | 0.00 | 0.00 | 0.00 | 96 | 1015.3 |
| 20260510063914 | 15 | 340 | 0.0 | 1.6 | 0.00 | 0.00 | 0.00 | 96 | 1015.3 |
| 20260510063814 | 15 | 341 | 0.0 | 1.6 | 0.00 | 0.00 | 0.00 | 96 | 1015.3 |
| 20260510063709 | 15 | 340 | 0.0 | 0.0 | 0.00 | 0.00 | 0.00 | 96 | 1015.2 |
| 20260510063608 | 15 | 340 | 0.0 | 0.0 | 0.00 | 0.00 | 0.00 | 96 | 1015.2 |
| 20260510063507 | 15 | 340 | 0.0 | 0.0 | 0.00 | 0.00 | 0.00 | 96 | 1015.2 |
| 20260510063407 | 15 | 340 | 0.0 | 0.0 | 0.00 | 0.00 | 0.00 | 96 | 1015.1 |
| 20260510063308 | 15 | 340 | 0.0 | 0.0 | 0.00 | 0.00 | 0.00 | 96 | 1015.1 |
| 20260510063202 | 15 | 341 | 0.0 | 0.0 | 0.00 | 0.00 | 0.00 | 96 | 1015.1 |
| 20260510063101 | 15 | 341 | 0.0 | 0.0 | 0.00 | 0.00 | 0.00 | 96 | 1015.2 |
| 20260510063001 | 15 | 340 | 0.0 | 0.0 | 0.00 | 0.00 | 0.00 | 96 | 1015.0 |
| 20260510062902 | 15 | 340 | 0.0 | 0.0 | 0.00 | 0.00 | 0.00 | 96 | 1015.1 |
| 20260510062802 | 15 | 340 | 0.0 | 0.0 | 0.00 | 0.00 | 0.00 | 96 | 1015.0 |
| 20260510062658 | 15 | 340 | 0.0 | 0.0 | 0.00 | 0.00 | 0.00 | 96 | 1015.2 |
| 20260510062559 | 15 | 340 | 0.0 | 0.0 | 0.00 | 0.00 | 0.00 | 96 | 1015.1 |
| 20260510062500 | 15 | 340 | 0.0 | 0.0 | 0.00 | 0.00 | 0.00 | 96 | 1015.2 |
| 20260510062358 | 15 | 341 | 0.0 | 0.0 | 0.00 | 0.00 | 0.00 | 96 | 1015.1 |
| 20260510062256 | 15 | 340 | 0.0 | 0.0 | 0.00 | 0.00 | 0.00 | 96 | 1015.1 |
| 20260510062152 | 15 | 341 | 0.0 | 0.0 | 0.00 | 0.00 | 0.00 | 96 | 1015.2 |
| 20260510062054 | 15 | 340 | 0.0 | 0.0 | 0.00 | 0.00 | 0.00 | 96 | 1015.1 |
| 20260510061951 | 15 | 340 | 0.0 | 0.0 | 0.00 | 0.00 | 0.00 | 96 | 1015.1 |
| 20260510061852 | 15 | 340 | 0.0 | 0.0 | 0.00 | 0.00 | 0.00 | 96 | 1015.3 |
| 20260510061750 | 15 | 340 | 0.0 | 0.0 | 0.00 | 0.00 | 0.00 | 96 | 1015.3 |
| 20260510061649 | 15 | 340 | 0.0 | 0.0 | 0.00 | 0.00 | 0.00 | 96 | 1015.3 |
| 20260510061546 | 15 | 340 | 0.0 | 0.0 | 0.00 | 0.00 | 0.00 | 96 | 1015.3 |
| 20260510061447 | 15 | 340 | 0.0 | 0.0 | 0.00 | 0.00 | 0.00 | 96 | 1015.3 |
| 20260510061346 | 15 | 340 | 0.0 | 0.0 | 0.00 | 0.00 | 0.00 | 96 | 1015.3 |
| 20260510061244 | 15 | 340 | 0.0 | 0.0 | 0.00 | 0.00 | 0.00 | 96 | 1015.2 |
| 20260510061138 | 15 | 340 | 0.0 | 0.0 | 0.00 | 0.00 | 0.00 | 96 | 1015.2 |
| 20260510061040 | 15 | 340 | 0.0 | 0.0 | 0.00 | 0.00 | 0.00 | 96 | 1015.2 |
| 20260510060940 | 15 | 340 | 0.0 | 0.0 | 0.00 | 0.00 | 0.00 | 96 | 1015.2 |
| 20260510060840 | 15 | 340 | 0.0 | 1.6 | 0.00 | 0.00 | 0.00 | 95 | 1015.3 |
| 20260510060738 | 15 | 340 | 0.0 | 1.6 | 0.00 | 0.00 | 0.00 | 95 | 1015.3 |
| 20260510060639 | 15 | 340 | 0.0 | 1.6 | 0.00 | 0.00 | 0.00 | 95 | 1015.2 |
| 20260510060540 | 15 | 341 | 0.0 | 1.6 | 0.00 | 0.00 | 0.00 | 95 | 1015.2 |
| 20260510060440 | 15 | 341 | 0.0 | 1.6 | 0.00 | 0.00 | 0.00 | 95 | 1015.2 |
| 20260510060336 | 15 | 341 | 0.0 | 1.6 | 0.00 | 0.00 | 0.00 | 95 | 1015.3 |
| 20260510060238 | 15 | 341 | 0.0 | 1.6 | 0.00 | 0.00 | 0.00 | 95 | 1015.3 |
| 20260510060136 | 15 | 340 | 0.0 | 1.6 | 0.00 | 0.00 | 0.00 | 95 | 1015.3 |
| 20260510060037 | 15 | 340 | 0.0 | 1.6 | 0.00 | 0.00 | 0.00 | 95 | 1015.2 |
| 20260510055936 | 15 | 341 | 0.0 | 1.6 | 0.00 | 0.00 | 0.00 | 95 | 1015.3 |
| 20260510055839 | 15 | 341 | 0.0 | 0.0 | 0.00 | 0.00 | 0.00 | 95 | 1015.3 |
| 20260510055822 | 15 | 340 | 0.0 | 0.0 | 0.00 | 0.00 | 0.00 | 95 | 1015.2 |
| 20260510055634 | 15 | 340 | 0.0 | 0.0 | 0.00 | 0.00 | 0.00 | 95 | 1015.3 |
| 20260510055535 | 15 | 341 | 0.0 | 0.0 | 0.00 | 0.00 | 0.00 | 94 | 1015.3 |
| 20260510055436 | 15 | 340 | 0.0 | 0.0 | 0.00 | 0.00 | 0.00 | 94 | 1015.3 |
| 20260510055334 | 15 | 340 | 0.0 | 0.0 | 0.00 | 0.00 | 0.00 | 94 | 1015.3 |
| 20260510055233 | 15 | 340 | 0.0 | 0.0 | 0.00 | 0.00 | 0.00 | 94 | 1015.3 |
| 20260510055134 | 15 | 340 | 0.0 | 0.0 | 0.00 | 0.00 | 0.00 | 94 | 1015.3 |
| 20260510055034 | 15 | 340 | 0.0 | 0.0 | 0.00 | 0.00 | 0.00 | 94 | 1015.3 |
| 20260510054930 | 15 | 340 | 0.0 | 0.0 | 0.00 | 0.00 | 0.00 | 94 | 1015.3 |
| 20260510054836 | 15 | 340 | 0.0 | 0.0 | 0.00 | 0.00 | 0.00 | 94 | 1015.3 |
| 20260510054818 | 15 | 341 | 0.0 | 0.0 | 0.00 | 0.00 | 0.00 | 94 | 1015.3 |
| 20260510054630 | 15 | 341 | 0.0 | 0.0 | 0.00 | 0.00 | 0.00 | 94 | 1015.3 |
| 20260510054528 | 15 | 340 | 0.0 | 0.0 | 0.00 | 0.00 | 0.00 | 94 | 1015.3 |
| 20260510054420 | 15 | 341 | 0.0 | 0.0 | 0.00 | 0.00 | 0.00 | 94 | 1015.3 |
| 20260510054321 | 15 | 341 | 0.0 | 0.0 | 0.00 | 0.00 | 0.00 | 94 | 1015.2 |
| 20260510054123 | 15 | 340 | 0.0 | 0.0 | 0.00 | 0.00 | 0.00 | 93 | 1015.4 |
| 20260510054022 | 15 | 341 | 0.0 | 0.0 | 0.00 | 0.00 | 0.00 | 93 | 1015.3 |
| 20260510053914 | 16 | 341 | 0.0 | 0.0 | 0.00 | 0.00 | 0.00 | 93 | 1015.4 |
| 20260510053821 | 16 | 340 | 0.0 | 0.0 | 0.00 | 0.00 | 0.00 | 93 | 1015.4 |
| 20260510053805 | 16 | 341 | 0.0 | 0.0 | 0.00 | 0.00 | 0.00 | 93 | 1015.4 |
| 20260510053614 | 16 | 340 | 0.0 | 0.0 | 0.00 | 0.00 | 0.00 | 93 | 1015.4 |
| 20260510053515 | 16 | 340 | 0.0 | 0.0 | 0.00 | 0.00 | 0.00 | 93 | 1015.4 |
| 20260510053415 | 16 | 340 | 0.0 | 0.0 | 0.00 | 0.00 | 0.00 | 93 | 1015.4 |
| 20260510053312 | 16 | 340 | 0.0 | 0.0 | 0.00 | 0.00 | 0.00 | 93 | 1015.4 |
| 20260510053214 | 16 | 341 | 0.0 | 0.0 | 0.00 | 0.00 | 0.00 | 93 | 1015.4 |
| 20260510053112 | 16 | 341 | 0.0 | 0.0 | 0.00 | 0.00 | 0.00 | 93 | 1015.4 |
| 20260510053010 | 16 | 340 | 0.0 | 0.0 | 0.00 | 0.00 | 0.00 | 93 | 1015.3 |
| 20260510052904 | 16 | 341 | 0.0 | 0.0 | 0.00 | 0.00 | 0.00 | 92 | 1015.4 |
| 20260510052802 | 16 | 341 | 0.0 | 0.0 | 0.00 | 0.00 | 0.00 | 92 | 1015.4 |
| 20260510052702 | 16 | 340 | 0.0 | 0.0 | 0.00 | 0.00 | 0.00 | 92 | 1015.4 |
| 20260510052604 | 16 | 341 | 0.0 | 0.0 | 0.00 | 0.00 | 0.00 | 92 | 1015.4 |
| 20260510052504 | 16 | 340 | 0.0 | 0.0 | 0.00 | 0.00 | 0.00 | 92 | 1015.4 |
| 20260510052356 | 16 | 340 | 0.0 | 0.0 | 0.00 | 0.00 | 0.00 | 92 | 1015.5 |
| 20260510052307 | 16 | 340 | 0.0 | 0.0 | 0.00 | 0.00 | 0.00 | 92 | 1015.4 |
| 20260510052249 | 16 | 340 | 0.0 | 0.0 | 0.00 | 0.00 | 0.00 | 92 | 1015.5 |
| 20260510052057 | 16 | 340 | 0.0 | 0.0 | 0.00 | 0.00 | 0.00 | 92 | 1015.4 |
| 20260510051957 | 16 | 340 | 0.0 | 0.0 | 0.00 | 0.00 | 0.00 | 92 | 1015.5 |
| 20260510051902 | 16 | 340 | 0.0 | 0.0 | 0.00 | 0.00 | 0.00 | 91 | 1015.5 |
| 20260510051755 | 16 | 341 | 0.0 | 0.0 | 0.00 | 0.00 | 0.00 | 91 | 1015.4 |
| 20260510051553 | 16 | 340 | 0.0 | 0.0 | 0.00 | 0.00 | 0.00 | 91 | 1015.5 |
| 20260510051452 | 16 | 340 | 0.0 | 0.0 | 0.00 | 0.00 | 0.00 | 91 | 1015.4 |
| 20260510051344 | 16 | 341 | 0.0 | 1.6 | 0.00 | 0.00 | 0.00 | 91 | 1015.5 |
| 20260510051246 | 16 | 340 | 0.0 | 1.6 | 0.00 | 0.00 | 0.00 | 91 | 1015.4 |
| 20260510051146 | 16 | 341 | 0.0 | 1.6 | 0.00 | 0.00 | 0.00 | 91 | 1015.5 |
| 20260510051044 | 17 | 341 | 0.0 | 1.6 | 0.00 | 0.00 | 0.00 | 91 | 1015.5 |
| 20260510050944 | 17 | 340 | 0.0 | 1.6 | 0.00 | 0.00 | 0.00 | 91 | 1015.6 |
| 20260510050844 | 17 | 340 | 0.0 | 1.6 | 0.00 | 0.00 | 0.00 | 91 | 1015.6 |
| 20260510050746 | 17 | 340 | 0.0 | 1.6 | 0.00 | 0.00 | 0.00 | 91 | 1015.5 |
| 20260510050544 | 17 | 341 | 0.0 | 1.6 | 0.00 | 0.00 | 0.00 | 91 | 1015.5 |
| 20260510050444 | 17 | 341 | 0.0 | 1.6 | 0.00 | 0.00 | 0.00 | 91 | 1015.5 |
| 20260510050340 | 17 | 39 | 0.0 | 0.0 | 0.00 | 0.00 | 0.00 | 91 | 1015.5 |
| 20260510050239 | 17 | 39 | 0.0 | 0.0 | 0.00 | 0.00 | 0.00 | 91 | 1015.5 |
| 20260510050036 | 17 | 39 | 0.0 | 1.6 | 0.00 | 0.00 | 0.00 | 91 | 1015.6 |
| 20260510045937 | 17 | 39 | 0.0 | 1.6 | 0.00 | 0.00 | 0.00 | 91 | 1015.6 |
| 20260510045736 | 17 | 37 | 0.0 | 1.6 | 0.00 | 0.00 | 0.00 | 91 | 1015.5 |
| 20260510045635 | 17 | 37 | 0.0 | 1.6 | 0.00 | 0.00 | 0.00 | 91 | 1015.5 |
| 20260510045534 | 17 | 37 | 0.0 | 1.6 | 0.00 | 0.00 | 0.00 | 91 | 1015.6 |
| 20260510045435 | 17 | 39 | 0.0 | 1.6 | 0.00 | 0.00 | 0.00 | 91 | 1015.6 |
| 20260510045336 | 17 | 39 | 0.0 | 1.6 | 0.00 | 0.00 | 0.00 | 91 | 1015.6 |
| 20260510045251 | 17 | 39 | 0.0 | 1.6 | 0.00 | 0.00 | 0.00 | 90 | 1015.6 |
| 20260510045129 | 17 | 39 | 0.0 | 0.0 | 0.00 | 0.00 | 0.00 | 90 | 1015.7 |
| 20260510045029 | 17 | 39 | 0.0 | 1.6 | 0.00 | 0.00 | 0.00 | 90 | 1015.6 |
| 20260510044929 | 17 | 39 | 0.0 | 1.6 | 0.00 | 0.00 | 0.00 | 90 | 1015.6 |
| 20260510044829 | 17 | 39 | 0.0 | 1.6 | 0.00 | 0.00 | 0.00 | 90 | 1015.7 |
| 20260510044728 | 17 | 39 | 0.0 | 1.6 | 0.00 | 0.00 | 0.00 | 89 | 1015.5 |
| 20260510044631 | 17 | 38 | 0.0 | 3.2 | 0.00 | 0.00 | 0.00 | 89 | 1015.6 |
| 20260510044529 | 17 | 39 | 0.0 | 3.2 | 0.00 | 0.00 | 0.00 | 89 | 1015.5 |
| 20260510044428 | 17 | 39 | 0.0 | 3.2 | 0.00 | 0.00 | 0.00 | 89 | 1015.5 |
| 20260510044329 | 17 | 39 | 1.6 | 3.2 | 0.00 | 0.00 | 0.00 | 89 | 1015.5 |
| 20260510044229 | 17 | 39 | 1.6 | 3.2 | 0.00 | 0.00 | 0.00 | 89 | 1015.5 |
| 20260510044129 | 17 | 39 | 1.6 | 4.8 | 0.00 | 0.00 | 0.00 | 89 | 1015.5 |
| 20260510044030 | 17 | 39 | 1.6 | 4.8 | 0.00 | 0.00 | 0.00 | 89 | 1015.5 |
| 20260510043925 | 17 | 16 | 1.6 | 4.8 | 0.00 | 0.00 | 0.00 | 89 | 1015.5 |
| 20260510043826 | 17 | 350 | 1.6 | 4.8 | 0.00 | 0.00 | 0.00 | 89 | 1015.6 |
| 20260510043724 | 17 | 64 | 1.6 | 4.8 | 0.00 | 0.00 | 0.00 | 89 | 1015.5 |
| 20260510043625 | 17 | 52 | 1.6 | 4.8 | 0.00 | 0.00 | 0.00 | 89 | 1015.6 |
| 20260510043525 | 17 | 52 | 1.6 | 4.8 | 0.00 | 0.00 | 0.00 | 89 | 1015.6 |
| 20260510043425 | 17 | 240 | 0.0 | 4.8 | 0.00 | 0.00 | 0.00 | 89 | 1015.6 |
| 20260510043325 | 17 | 92 | 0.0 | 4.8 | 0.00 | 0.00 | 0.00 | 89 | 1015.5 |
| 20260510043224 | 17 | 246 | 0.0 | 4.8 | 0.00 | 0.00 | 0.00 | 89 | 1015.5 |
| 20260510043124 | 17 | 269 | 0.0 | 4.8 | 0.00 | 0.00 | 0.00 | 89 | 1015.5 |
| 20260510043026 | 17 | 217 | 0.0 | 4.8 | 0.00 | 0.00 | 0.00 | 89 | 1015.5 |
| 20260510042925 | 17 | 135 | 0.0 | 4.8 | 0.00 | 0.00 | 0.00 | 89 | 1015.5 |
| 20260510042825 | 17 | 210 | 1.6 | 8.0 | 0.00 | 0.00 | 0.00 | 88 | 1015.5 |
| 20260510042724 | 17 | 193 | 1.6 | 8.0 | 0.00 | 0.00 | 0.00 | 89 | 1015.5 |
| 20260510042626 | 17 | 193 | 1.6 | 8.0 | 0.00 | 0.00 | 0.00 | 88 | 1015.5 |
| 20260510042526 | 17 | 274 | 1.6 | 8.0 | 0.00 | 0.00 | 0.00 | 89 | 1015.5 |
| 20260510042425 | 17 | 274 | 1.6 | 8.0 | 0.00 | 0.00 | 0.00 | 89 | 1015.5 |
| 20260510042325 | 17 | 143 | 1.6 | 8.0 | 0.00 | 0.00 | 0.00 | 88 | 1015.5 |
| 20260510042225 | 17 | 198 | 1.6 | 8.0 | 0.00 | 0.00 | 0.00 | 89 | 1015.5 |
| 20260510042126 | 17 | 241 | 1.6 | 8.0 | 0.00 | 0.00 | 0.00 | 89 | 1015.5 |
| 20260510042022 | 17 | 208 | 1.6 | 8.0 | 0.00 | 0.00 | 0.00 | 89 | 1015.5 |
| 20260510041920 | 17 | 192 | 1.6 | 8.0 | 0.00 | 0.00 | 0.00 | 88 | 1015.6 |
| 20260510041821 | 17 | 154 | 1.6 | 6.4 | 0.00 | 0.00 | 0.00 | 89 | 1015.5 |
| 20260510041721 | 17 | 238 | 1.6 | 6.4 | 0.00 | 0.00 | 0.00 | 88 | 1015.5 |
| 20260510041620 | 17 | 247 | 1.6 | 6.4 | 0.00 | 0.00 | 0.00 | 88 | 1015.5 |
| 20260510041521 | 17 | 210 | 1.6 | 6.4 | 0.00 | 0.00 | 0.00 | 88 | 1015.6 |
| 20260510041420 | 17 | 208 | 1.6 | 6.4 | 0.00 | 0.00 | 0.00 | 88 | 1015.5 |
| 20260510041322 | 17 | 274 | 1.6 | 6.4 | 0.00 | 0.00 | 0.00 | 88 | 1015.5 |
| 20260510041221 | 17 | 252 | 1.6 | 6.4 | 0.00 | 0.00 | 0.00 | 88 | 1015.5 |
| 20260510041120 | 17 | 272 | 1.6 | 6.4 | 0.00 | 0.00 | 0.00 | 88 | 1015.5 |
| 20260510040920 | 17 | 211 | 1.6 | 6.4 | 0.00 | 0.00 | 0.00 | 88 | 1015.5 |
| 20260510040821 | 17 | 210 | 1.6 | 6.4 | 0.00 | 0.00 | 0.00 | 88 | 1015.5 |
| 20260510040746 | 17 | 224 | 1.6 | 6.4 | 0.00 | 0.00 | 0.00 | 88 | 1015.5 |
| 20260510040622 | 17 | 245 | 1.6 | 6.4 | 0.00 | 0.00 | 0.00 | 88 | 1015.5 |
| 20260510040520 | 17 | 172 | 1.6 | 6.4 | 0.00 | 0.00 | 0.00 | 88 | 1015.5 |
| 20260510040422 | 17 | 266 | 1.6 | 6.4 | 0.00 | 0.00 | 0.00 | 88 | 1015.5 |
| 20260510040320 | 17 | 245 | 1.6 | 6.4 | 0.00 | 0.00 | 0.00 | 88 | 1015.5 |
| 20260510040222 | 17 | 176 | 1.6 | 6.4 | 0.00 | 0.00 | 0.00 | 88 | 1015.5 |
| 20260510040118 | 17 | 148 | 1.6 | 6.4 | 0.00 | 0.00 | 0.00 | 88 | 1015.5 |
| 20260510040018 | 17 | 240 | 1.6 | 6.4 | 0.00 | 0.00 | 0.00 | 88 | 1015.5 |
| 20260510035918 | 17 | 319 | 1.6 | 4.8 | 0.00 | 0.00 | 0.00 | 88 | 1015.5 |
| 20260510035815 | 17 | 309 | 1.6 | 4.8 | 0.00 | 0.00 | 0.00 | 88 | 1015.5 |
| 20260510035715 | 17 | 224 | 1.6 | 4.8 | 0.00 | 0.00 | 0.00 | 88 | 1015.6 |
| 20260510035611 | 17 | 212 | 1.6 | 4.8 | 0.00 | 0.00 | 0.00 | 88 | 1015.6 |
| 20260510035508 | 17 | 210 | 1.6 | 4.8 | 0.00 | 0.00 | 0.00 | 88 | 1015.6 |
| 20260510035407 | 17 | 165 | 1.6 | 4.8 | 0.00 | 0.00 | 0.00 | 88 | 1015.6 |
| 20260510035307 | 17 | 165 | 1.6 | 4.8 | 0.00 | 0.00 | 0.00 | 88 | 1015.5 |
| 20260510035209 | 17 | 204 | 1.6 | 6.4 | 0.00 | 0.00 | 0.00 | 88 | 1015.6 |
| 20260510035106 | 17 | 231 | 1.6 | 6.4 | 0.00 | 0.00 | 0.00 | 88 | 1015.6 |
| 20260510035007 | 17 | 170 | 1.6 | 6.4 | 0.00 | 0.00 | 0.00 | 88 | 1015.6 |
| 20260510034906 | 17 | 188 | 1.6 | 6.4 | 0.00 | 0.00 | 0.00 | 88 | 1015.6 |
| 20260510034805 | 17 | 191 | 1.6 | 6.4 | 0.00 | 0.00 | 0.00 | 88 | 1015.6 |
| 20260510034702 | 17 | 252 | 1.6 | 6.4 | 0.00 | 0.00 | 0.00 | 88 | 1015.6 |
| 20260510034557 | 17 | 225 | 1.6 | 6.4 | 0.00 | 0.00 | 0.00 | 88 | 1015.6 |
| 20260510034456 | 17 | 224 | 1.6 | 6.4 | 0.00 | 0.00 | 0.00 | 88 | 1015.7 |
| 20260510034357 | 17 | 274 | 1.6 | 6.4 | 0.00 | 0.00 | 0.00 | 88 | 1015.6 |
| 20260510034256 | 17 | 180 | 1.6 | 6.4 | 0.00 | 0.00 | 0.00 | 87 | 1015.6 |
| 20260510034156 | 17 | 295 | 1.6 | 6.4 | 0.00 | 0.00 | 0.00 | 87 | 1015.6 |
| 20260510034056 | 17 | 296 | 1.6 | 6.4 | 0.00 | 0.00 | 0.00 | 87 | 1015.6 |
| 20260510033955 | 17 | 296 | 1.6 | 6.4 | 0.00 | 0.00 | 0.00 | 88 | 1015.6 |
| 20260510033854 | 17 | 268 | 1.6 | 6.4 | 0.00 | 0.00 | 0.00 | 88 | 1015.7 |
| 20260510033753 | 17 | 269 | 1.6 | 6.4 | 0.00 | 0.00 | 0.00 | 88 | 1015.7 |
| 20260510033651 | 17 | 233 | 1.6 | 6.4 | 0.00 | 0.00 | 0.00 | 88 | 1015.6 |
| 20260510033544 | 17 | 143 | 1.6 | 6.4 | 0.00 | 0.00 | 0.00 | 88 | 1015.6 |
| 20260510033445 | 17 | 206 | 1.6 | 6.4 | 0.00 | 0.00 | 0.00 | 87 | 1015.7 |
| 20260510033345 | 17 | 166 | 1.6 | 6.4 | 0.00 | 0.00 | 0.00 | 87 | 1015.6 |
| 20260510033242 | 17 | 236 | 1.6 | 6.4 | 0.00 | 0.00 | 0.00 | 88 | 1015.6 |
| 20260510033143 | 17 | 226 | 1.6 | 6.4 | 0.00 | 0.00 | 0.00 | 87 | 1015.7 |
| 20260510033037 | 17 | 212 | 1.6 | 6.4 | 0.00 | 0.00 | 0.00 | 87 | 1015.7 |
| 20260510032936 | 17 | 230 | 1.6 | 6.4 | 0.00 | 0.00 | 0.00 | 87 | 1015.8 |
| 20260510032836 | 17 | 230 | 1.6 | 6.4 | 0.00 | 0.00 | 0.00 | 87 | 1015.7 |
| 20260510032752 | 17 | 158 | 1.6 | 6.4 | 0.00 | 0.00 | 0.00 | 87 | 1015.6 |
| 20260510032734 | 17 | 200 | 1.6 | 8.0 | 0.00 | 0.00 | 0.00 | 87 | 1015.6 |
| 20260510032531 | 17 | 271 | 1.6 | 8.0 | 0.00 | 0.00 | 0.00 | 87 | 1015.7 |
| 20260510032430 | 17 | 200 | 1.6 | 8.0 | 0.00 | 0.00 | 0.00 | 87 | 1015.7 |
| 20260510032328 | 17 | 200 | 1.6 | 8.0 | 0.00 | 0.00 | 0.00 | 87 | 1015.7 |
| 20260510032227 | 17 | 200 | 1.6 | 8.0 | 0.00 | 0.00 | 0.00 | 87 | 1015.6 |
| 20260510032021 | 17 | 218 | 1.6 | 8.0 | 0.00 | 0.00 | 0.00 | 87 | 1015.7 |
| 20260510031922 | 17 | 233 | 1.6 | 8.0 | 0.00 | 0.00 | 0.00 | 87 | 1015.7 |
| 20260510031821 | 17 | 226 | 1.6 | 8.0 | 0.00 | 0.00 | 0.00 | 87 | 1015.6 |
| 20260510031721 | 17 | 163 | 1.6 | 4.8 | 0.00 | 0.00 | 0.00 | 87 | 1015.5 |
| 20260510031623 | 17 | 157 | 1.6 | 4.8 | 0.00 | 0.00 | 0.00 | 87 | 1015.6 |
| 20260510031521 | 17 | 151 | 1.6 | 4.8 | 0.00 | 0.00 | 0.00 | 87 | 1015.5 |
| 20260510031421 | 17 | 236 | 1.6 | 4.8 | 0.00 | 0.00 | 0.00 | 87 | 1015.5 |
| 20260510031319 | 17 | 209 | 1.6 | 4.8 | 0.00 | 0.00 | 0.00 | 87 | 1015.6 |
| 20260510031217 | 17 | 171 | 1.6 | 4.8 | 0.00 | 0.00 | 0.00 | 87 | 1015.5 |
| 20260510031119 | 17 | 154 | 1.6 | 4.8 | 0.00 | 0.00 | 0.00 | 87 | 1015.6 |
| 20260510031012 | 17 | 213 | 1.6 | 4.8 | 0.00 | 0.00 | 0.00 | 87 | 1015.5 |
| 20260510030911 | 17 | 217 | 1.6 | 4.8 | 0.00 | 0.00 | 0.00 | 87 | 1015.5 |
| 20260510030813 | 18 | 212 | 1.6 | 8.0 | 0.00 | 0.00 | 0.00 | 87 | 1015.6 |
| 20260510030712 | 18 | 186 | 1.6 | 8.0 | 0.00 | 0.00 | 0.00 | 87 | 1015.5 |
| 20260510030612 | 18 | 209 | 3.2 | 8.0 | 0.00 | 0.00 | 0.00 | 87 | 1015.5 |
| 20260510030510 | 18 | 211 | 3.2 | 8.0 | 0.00 | 0.00 | 0.00 | 87 | 1015.5 |
| 20260510030408 | 18 | 205 | 3.2 | 8.0 | 0.00 | 0.00 | 0.00 | 86 | 1015.4 |
| 20260510030308 | 18 | 217 | 3.2 | 8.0 | 0.00 | 0.00 | 0.00 | 86 | 1015.5 |
| 20260510030237 | 18 | 207 | 3.2 | 8.0 | 0.00 | 0.00 | 0.00 | 86 | 1015.4 |
| 20260510030105 | 18 | 208 | 3.2 | 8.0 | 0.00 | 0.00 | 0.00 | 86 | 1015.5 |
| 20260510025957 | 18 | 189 | 3.2 | 8.0 | 0.00 | 0.00 | 0.00 | 86 | 1015.5 |
| 20260510025858 | 18 | 242 | 3.2 | 8.0 | 0.00 | 0.00 | 0.00 | 86 | 1015.4 |
| 20260510025758 | 18 | 164 | 3.2 | 6.4 | 0.00 | 0.00 | 0.00 | 86 | 1015.4 |
| 20260510025659 | 18 | 175 | 3.2 | 6.4 | 0.00 | 0.00 | 0.00 | 86 | 1015.4 |
| 20260510025557 | 18 | 210 | 3.2 | 6.4 | 0.00 | 0.00 | 0.00 | 86 | 1015.4 |
| 20260510025452 | 18 | 167 | 3.2 | 6.4 | 0.00 | 0.00 | 0.00 | 86 | 1015.4 |
| 20260510025352 | 18 | 208 | 3.2 | 6.4 | 0.00 | 0.00 | 0.00 | 86 | 1015.4 |
| 20260510025254 | 18 | 147 | 1.6 | 6.4 | 0.00 | 0.00 | 0.00 | 86 | 1015.4 |
| 20260510025234 | 18 | 193 | 1.6 | 6.4 | 0.00 | 0.00 | 0.00 | 86 | 1015.4 |
| 20260510025051 | 18 | 160 | 1.6 | 4.8 | 0.00 | 0.00 | 0.00 | 86 | 1015.4 |
| 20260510024944 | 18 | 179 | 1.6 | 4.8 | 0.00 | 0.00 | 0.00 | 86 | 1015.4 |
| 20260510024844 | 18 | 179 | 1.6 | 4.8 | 0.00 | 0.00 | 0.00 | 86 | 1015.4 |
| 20260510024743 | 18 | 217 | 1.6 | 4.8 | 0.00 | 0.00 | 0.00 | 86 | 1015.3 |
| 20260510024716 | 18 | 163 | 1.6 | 4.8 | 0.00 | 0.00 | 0.00 | 86 | 1015.3 |
| 20260510024705 | 18 | 216 | 1.6 | 4.8 | 0.00 | 0.00 | 0.00 | 86 | 1015.4 |
| 20260510024440 | 18 | 177 | 1.6 | 4.8 | 0.00 | 0.00 | 0.00 | 86 | 1015.4 |
| 20260510024339 | 18 | 212 | 1.6 | 4.8 | 0.00 | 0.00 | 0.00 | 86 | 1015.3 |
| 20260510024239 | 18 | 213 | 1.6 | 4.8 | 0.00 | 0.00 | 0.00 | 86 | 1015.3 |
| 20260510024036 | 18 | 240 | 1.6 | 4.8 | 0.00 | 0.00 | 0.00 | 86 | 1015.3 |
| 20260510023936 | 18 | 225 | 1.6 | 4.8 | 0.00 | 0.00 | 0.00 | 86 | 1015.4 |
| 20260510023835 | 18 | 206 | 1.6 | 4.8 | 0.00 | 0.00 | 0.00 | 86 | 1015.3 |
| 20260510023744 | 18 | 172 | 1.6 | 4.8 | 0.00 | 0.00 | 0.00 | 86 | 1015.4 |
| 20260510023728 | 18 | 197 | 1.6 | 4.8 | 0.00 | 0.00 | 0.00 | 86 | 1015.3 |
| 20260510023536 | 18 | 204 | 1.6 | 4.8 | 0.00 | 0.00 | 0.00 | 85 | 1015.3 |
| 20260510023434 | 18 | 174 | 1.6 | 4.8 | 0.00 | 0.00 | 0.00 | 85 | 1015.3 |
| 20260510023333 | 18 | 161 | 1.6 | 4.8 | 0.00 | 0.00 | 0.00 | 85 | 1015.3 |
| 20260510023235 | 18 | 215 | 1.6 | 4.8 | 0.00 | 0.00 | 0.00 | 85 | 1015.3 |
| 20260510023134 | 18 | 151 | 1.6 | 4.8 | 0.00 | 0.00 | 0.00 | 85 | 1015.3 |
| 20260510023034 | 18 | 165 | 1.6 | 4.8 | 0.00 | 0.00 | 0.00 | 85 | 1015.2 |
| 20260510022934 | 18 | 164 | 1.6 | 4.8 | 0.00 | 0.00 | 0.00 | 85 | 1015.2 |
| 20260510022834 | 18 | 155 | 1.6 | 4.8 | 0.00 | 0.00 | 0.00 | 85 | 1015.2 |
| 20260510022735 | 18 | 172 | 1.6 | 4.8 | 0.00 | 0.00 | 0.00 | 85 | 1015.3 |
| 20260510022633 | 18 | 204 | 1.6 | 4.8 | 0.00 | 0.00 | 0.00 | 85 | 1015.2 |
| 20260510022435 | 18 | 184 | 1.6 | 4.8 | 0.00 | 0.00 | 0.00 | 85 | 1015.2 |
| 20260510022333 | 18 | 143 | 1.6 | 4.8 | 0.00 | 0.00 | 0.00 | 85 | 1015.3 |
| 20260510022247 | 18 | 186 | 1.6 | 4.8 | 0.00 | 0.00 | 0.00 | 85 | 1015.3 |
| 20260510022229 | 18 | 217 | 1.6 | 4.8 | 0.00 | 0.00 | 0.00 | 85 | 1015.3 |
| 20260510022029 | 18 | 211 | 1.6 | 4.8 | 0.00 | 0.00 | 0.00 | 85 | 1015.3 |
| 20260510021930 | 18 | 186 | 1.6 | 4.8 | 0.00 | 0.00 | 0.00 | 85 | 1015.2 |
| 20260510021831 | 18 | 176 | 1.6 | 4.8 | 0.00 | 0.00 | 0.00 | 85 | 1015.3 |
| 20260510021730 | 18 | 205 | 1.6 | 4.8 | 0.00 | 0.00 | 0.00 | 85 | 1015.2 |
| 20260510021631 | 18 | 173 | 1.6 | 4.8 | 0.00 | 0.00 | 0.00 | 85 | 1015.2 |
| 20260510021530 | 18 | 212 | 1.6 | 4.8 | 0.00 | 0.00 | 0.00 | 85 | 1015.2 |
| 20260510021429 | 18 | 210 | 1.6 | 4.8 | 0.00 | 0.00 | 0.00 | 85 | 1015.2 |
| 20260510021330 | 18 | 179 | 1.6 | 4.8 | 0.00 | 0.00 | 0.00 | 85 | 1015.1 |
| 20260510021243 | 18 | 219 | 1.6 | 4.8 | 0.00 | 0.00 | 0.00 | 85 | 1015.1 |
| 20260510021226 | 18 | 216 | 1.6 | 4.8 | 0.00 | 0.00 | 0.00 | 85 | 1015.1 |
| 20260510021030 | 18 | 223 | 1.6 | 4.8 | 0.00 | 0.00 | 0.00 | 85 | 1015.0 |
| 20260510020929 | 18 | 210 | 1.6 | 4.8 | 0.00 | 0.00 | 0.00 | 85 | 1015.0 |
| 20260510020830 | 18 | 197 | 1.6 | 4.8 | 0.00 | 0.00 | 0.00 | 84 | 1015.1 |
| 20260510020729 | 18 | 211 | 1.6 | 4.8 | 0.00 | 0.00 | 0.00 | 84 | 1015.1 |
| 20260510020629 | 18 | 223 | 1.6 | 4.8 | 0.00 | 0.00 | 0.00 | 84 | 1015.0 |
| 20260510020530 | 18 | 225 | 1.6 | 3.2 | 0.00 | 0.00 | 0.00 | 84 | 1015.1 |
| 20260510020430 | 18 | 225 | 1.6 | 3.2 | 0.00 | 0.00 | 0.00 | 84 | 1015.1 |
| 20260510020330 | 18 | 219 | 1.6 | 4.8 | 0.00 | 0.00 | 0.00 | 84 | 1015.1 |
| 20260510020241 | 18 | 217 | 1.6 | 4.8 | 0.00 | 0.00 | 0.00 | 84 | 1015.2 |
| 20260510020224 | 18 | 221 | 1.6 | 4.8 | 0.00 | 0.00 | 0.00 | 84 | 1015.2 |
| 20260510020026 | 18 | 221 | 1.6 | 4.8 | 0.00 | 0.00 | 0.00 | 84 | 1015.1 |
| 20260510015925 | 18 | 239 | 1.6 | 4.8 | 0.00 | 0.00 | 0.00 | 84 | 1015.1 |
| 20260510015825 | 18 | 207 | 1.6 | 4.8 | 0.00 | 0.00 | 0.00 | 84 | 1015.2 |
| 20260510015725 | 18 | 150 | 1.6 | 4.8 | 0.00 | 0.00 | 0.00 | 84 | 1015.1 |
| 20260510015625 | 18 | 139 | 3.2 | 4.8 | 0.00 | 0.00 | 0.00 | 84 | 1015.1 |
| 20260510015527 | 18 | 168 | 1.6 | 4.8 | 0.00 | 0.00 | 0.00 | 84 | 1015.1 |
| 20260510015426 | 18 | 224 | 1.6 | 4.8 | 0.00 | 0.00 | 0.00 | 84 | 1015.1 |
| 20260510015325 | 18 | 197 | 1.6 | 4.8 | 0.00 | 0.00 | 0.00 | 84 | 1015.0 |
| 20260510015227 | 18 | 214 | 1.6 | 4.8 | 0.00 | 0.00 | 0.00 | 84 | 1015.1 |
| 20260510015126 | 18 | 204 | 1.6 | 4.8 | 0.00 | 0.00 | 0.00 | 84 | 1015.0 |
| 20260510015026 | 18 | 181 | 1.6 | 4.8 | 0.00 | 0.00 | 0.00 | 84 | 1015.0 |
| 20260510014927 | 18 | 193 | 1.6 | 4.8 | 0.00 | 0.00 | 0.00 | 84 | 1015.0 |
| 20260510014825 | 18 | 223 | 1.6 | 4.8 | 0.00 | 0.00 | 0.00 | 84 | 1015.0 |
| 20260510014726 | 18 | 169 | 1.6 | 4.8 | 0.00 | 0.00 | 0.00 | 84 | 1015.0 |
| 20260510014525 | 18 | 217 | 1.6 | 4.8 | 0.00 | 0.00 | 0.00 | 84 | 1015.1 |
| 20260510014425 | 18 | 257 | 1.6 | 4.8 | 0.00 | 0.00 | 0.00 | 84 | 1015.0 |
| 20260510014327 | 18 | 221 | 1.6 | 6.4 | 0.00 | 0.00 | 0.00 | 84 | 1015.0 |
| 20260510014221 | 18 | 224 | 1.6 | 6.4 | 0.00 | 0.00 | 0.00 | 84 | 1014.9 |
| 20260510014021 | 18 | 195 | 1.6 | 6.4 | 0.00 | 0.00 | 0.00 | 83 | 1014.8 |
| 20260510013921 | 18 | 238 | 1.6 | 6.4 | 0.00 | 0.00 | 0.00 | 83 | 1014.8 |
| 20260510013823 | 18 | 193 | 1.6 | 6.4 | 0.00 | 0.00 | 0.00 | 83 | 1014.8 |
| 20260510013721 | 18 | 184 | 1.6 | 6.4 | 0.00 | 0.00 | 0.00 | 83 | 1014.7 |
| 20260510013522 | 18 | 207 | 1.6 | 6.4 | 0.00 | 0.00 | 0.00 | 83 | 1014.7 |
| 20260510013421 | 18 | 224 | 1.6 | 6.4 | 0.00 | 0.00 | 0.00 | 83 | 1014.7 |
| 20260510013322 | 18 | 198 | 1.6 | 4.8 | 0.00 | 0.00 | 0.00 | 83 | 1014.6 |
| 20260510013241 | 18 | 273 | 1.6 | 4.8 | 0.00 | 0.00 | 0.00 | 83 | 1014.7 |
| 20260510013223 | 18 | 217 | 1.6 | 4.8 | 0.00 | 0.00 | 0.00 | 83 | 1014.6 |
| 20260510013022 | 18 | 195 | 1.6 | 4.8 | 0.00 | 0.00 | 0.00 | 83 | 1014.7 |
| 20260510012921 | 18 | 237 | 1.6 | 4.8 | 0.00 | 0.00 | 0.00 | 83 | 1014.6 |
| 20260510012821 | 18 | 179 | 1.6 | 4.8 | 0.00 | 0.00 | 0.00 | 83 | 1014.6 |
| 20260510012722 | 18 | 162 | 1.6 | 4.8 | 0.00 | 0.00 | 0.00 | 83 | 1014.6 |
| 20260510012621 | 18 | 229 | 1.6 | 4.8 | 0.00 | 0.00 | 0.00 | 83 | 1014.5 |
| 20260510012522 | 18 | 169 | 0.0 | 4.8 | 0.00 | 0.00 | 0.00 | 83 | 1014.5 |
| 20260510012423 | 18 | 214 | 0.0 | 4.8 | 0.00 | 0.00 | 0.00 | 83 | 1014.5 |
| 20260510012318 | 18 | 222 | 0.0 | 4.8 | 0.00 | 0.00 | 0.00 | 83 | 1014.5 |
| 20260510012236 | 18 | 212 | 0.0 | 4.8 | 0.00 | 0.00 | 0.00 | 83 | 1014.5 |
| 20260510012219 | 18 | 221 | 0.0 | 4.8 | 0.00 | 0.00 | 0.00 | 83 | 1014.5 |
| 20260510012017 | 18 | 221 | 0.0 | 4.8 | 0.00 | 0.00 | 0.00 | 83 | 1014.4 |
| 20260510011919 | 18 | 221 | 0.0 | 4.8 | 0.00 | 0.00 | 0.00 | 83 | 1014.3 |
| 20260510011819 | 18 | 221 | 0.0 | 4.8 | 0.00 | 0.00 | 0.00 | 83 | 1014.4 |
| 20260510011717 | 18 | 238 | 0.0 | 4.8 | 0.00 | 0.00 | 0.00 | 83 | 1014.4 |
| 20260510011619 | 19 | 231 | 0.0 | 3.2 | 0.00 | 0.00 | 0.00 | 82 | 1014.3 |
| 20260510011519 | 19 | 184 | 1.6 | 3.2 | 0.00 | 0.00 | 0.00 | 82 | 1014.3 |
| 20260510011417 | 19 | 184 | 1.6 | 3.2 | 0.00 | 0.00 | 0.00 | 82 | 1014.3 |
| 20260510011318 | 19 | 184 | 1.6 | 3.2 | 0.00 | 0.00 | 0.00 | 82 | 1014.2 |
| 20260510011234 | 19 | 175 | 1.6 | 3.2 | 0.00 | 0.00 | 0.00 | 82 | 1014.2 |
| 20260510011218 | 19 | 174 | 1.6 | 3.2 | 0.00 | 0.00 | 0.00 | 82 | 1014.2 |
| 20260510011017 | 19 | 222 | 1.6 | 3.2 | 0.00 | 0.00 | 0.00 | 82 | 1014.2 |
| 20260510010917 | 19 | 222 | 1.6 | 3.2 | 0.00 | 0.00 | 0.00 | 82 | 1014.2 |
| 20260510010818 | 19 | 217 | 1.6 | 3.2 | 0.00 | 0.00 | 0.00 | 82 | 1014.2 |
| 20260510010735 | 19 | 224 | 1.6 | 3.2 | 0.00 | 0.00 | 0.00 | 82 | 1014.2 |
| 20260510010719 | 19 | 207 | 1.6 | 4.8 | 0.00 | 0.00 | 0.00 | 82 | 1014.2 |
| 20260510010518 | 19 | 229 | 1.6 | 4.8 | 0.00 | 0.00 | 0.00 | 82 | 1014.2 |
| 20260510010413 | 19 | 211 | 1.6 | 4.8 | 0.00 | 0.00 | 0.00 | 81 | 1014.2 |
| 20260510010314 | 19 | 140 | 1.6 | 4.8 | 0.00 | 0.00 | 0.00 | 81 | 1014.2 |
| 20260510010213 | 19 | 219 | 1.6 | 4.8 | 0.00 | 0.00 | 0.00 | 81 | 1014.2 |
| 20260510010013 | 19 | 182 | 1.6 | 6.4 | 0.00 | 0.00 | 0.00 | 81 | 1014.2 |
| 20260510005913 | 19 | 182 | 1.6 | 6.4 | 0.00 | 0.00 | 0.00 | 81 | 1014.0 |
| 20260510005815 | 19 | 179 | 1.6 | 6.4 | 0.00 | 0.00 | 0.00 | 81 | 1014.1 |
| 20260510005713 | 19 | 203 | 1.6 | 6.4 | 0.00 | 0.00 | 0.00 | 81 | 1014.1 |
| 20260510005515 | 20 | 213 | 1.6 | 6.4 | 0.00 | 0.00 | 0.00 | 80 | 1014.1 |
| 20260510005413 | 20 | 227 | 1.6 | 6.4 | 0.00 | 0.00 | 0.00 | 80 | 1014.1 |
| 20260510005314 | 20 | 227 | 1.6 | 6.4 | 0.00 | 0.00 | 0.00 | 80 | 1014.0 |
| 20260510005213 | 20 | 227 | 1.6 | 6.4 | 0.00 | 0.00 | 0.00 | 80 | 1013.9 |
| 20260510005013 | 20 | 138 | 1.6 | 4.8 | 0.00 | 0.00 | 0.00 | 80 | 1014.0 |
| 20260510004914 | 20 | 156 | 1.6 | 4.8 | 0.00 | 0.00 | 0.00 | 80 | 1014.0 |
| 20260510004814 | 20 | 178 | 1.6 | 4.8 | 0.00 | 0.00 | 0.00 | 80 | 1014.0 |
| 20260510004713 | 20 | 170 | 1.6 | 4.8 | 0.00 | 0.00 | 0.00 | 79 | 1014.0 |
| 20260510004515 | 20 | 205 | 1.6 | 4.8 | 0.00 | 0.00 | 0.00 | 79 | 1013.9 |
| 20260510004412 | 20 | 209 | 1.6 | 4.8 | 0.00 | 0.00 | 0.00 | 79 | 1013.9 |
| 20260510004312 | 20 | 207 | 1.6 | 8.0 | 0.00 | 0.00 | 0.00 | 79 | 1013.9 |
| 20260510004211 | 20 | 177 | 3.2 | 8.0 | 0.00 | 0.00 | 0.00 | 79 | 1013.9 |
| 20260510004004 | 20 | 190 | 1.6 | 8.0 | 0.00 | 0.00 | 0.00 | 79 | 1013.8 |
| 20260510003905 | 20 | 195 | 1.6 | 8.0 | 0.00 | 0.00 | 0.00 | 78 | 1013.8 |
| 20260510003803 | 20 | 167 | 1.6 | 8.0 | 0.00 | 0.00 | 0.00 | 78 | 1013.8 |
| 20260510003724 | 20 | 226 | 3.2 | 8.0 | 0.00 | 0.00 | 0.00 | 78 | 1013.8 |
| 20260510003710 | 20 | 147 | 3.2 | 8.0 | 0.00 | 0.00 | 0.00 | 78 | 1013.8 |
| 20260510003459 | 20 | 207 | 3.2 | 8.0 | 0.00 | 0.00 | 0.00 | 78 | 1013.8 |
| 20260510003400 | 20 | 206 | 3.2 | 8.0 | 0.00 | 0.00 | 0.00 | 78 | 1013.8 |
| 20260510003300 | 20 | 210 | 3.2 | 8.0 | 0.00 | 0.00 | 0.00 | 78 | 1013.7 |
| 20260510003218 | 20 | 167 | 3.2 | 8.0 | 0.00 | 0.00 | 0.00 | 78 | 1013.7 |
| 20260510003200 | 20 | 239 | 3.2 | 8.0 | 0.00 | 0.00 | 0.00 | 77 | 1013.7 |
| 20260510002957 | 20 | 259 | 3.2 | 8.0 | 0.00 | 0.00 | 0.00 | 77 | 1013.9 |
| 20260510002853 | 20 | 209 | 3.2 | 8.0 | 0.00 | 0.00 | 0.00 | 77 | 1013.8 |
| 20260510002754 | 20 | 271 | 3.2 | 8.0 | 0.00 | 0.00 | 0.00 | 77 | 1013.8 |
| 20260510002652 | 20 | 218 | 3.2 | 8.0 | 0.00 | 0.00 | 0.00 | 77 | 1013.8 |
| 20260510002443 | 20 | 224 | 3.2 | 8.0 | 0.00 | 0.00 | 0.00 | 77 | 1013.7 |
| 20260510002344 | 20 | 239 | 3.2 | 8.0 | 0.00 | 0.00 | 0.00 | 77 | 1013.8 |
| 20260510002245 | 20 | 229 | 3.2 | 8.0 | 0.00 | 0.00 | 0.00 | 77 | 1013.7 |
| 20260510002143 | 20 | 172 | 3.2 | 8.0 | 0.00 | 0.00 | 0.00 | 77 | 1013.5 |
| 20260510001941 | 21 | 209 | 3.2 | 8.0 | 0.00 | 0.00 | 0.00 | 76 | 1013.7 |
| 20260510001843 | 21 | 197 | 3.2 | 9.7 | 0.00 | 0.00 | 0.00 | 76 | 1013.7 |
| 20260510001741 | 21 | 157 | 3.2 | 9.7 | 0.00 | 0.00 | 0.00 | 76 | 1013.5 |
| 20260510001640 | 21 | 208 | 3.2 | 9.7 | 0.00 | 0.00 | 0.00 | 76 | 1013.5 |
| 20260510001435 | 21 | 204 | 3.2 | 9.7 | 0.00 | 0.00 | 0.00 | 75 | 1013.7 |
| 20260510001332 | 21 | 191 | 3.2 | 9.7 | 0.00 | 0.00 | 0.00 | 75 | 1013.7 |
| 20260510001231 | 21 | 220 | 3.2 | 9.7 | 0.00 | 0.00 | 0.00 | 75 | 1013.7 |
| 20260510001133 | 21 | 208 | 3.2 | 9.7 | 0.00 | 0.00 | 0.00 | 75 | 1013.7 |
| 20260510000926 | 21 | 202 | 1.6 | 9.7 | 0.00 | 0.00 | 0.00 | 74 | 1013.7 |
| 20260510000826 | 21 | 204 | 1.6 | 8.0 | 0.00 | 0.00 | 0.00 | 74 | 1013.5 |
| 20260510000726 | 21 | 219 | 1.6 | 8.0 | 0.00 | 0.00 | 0.00 | 74 | 1013.4 |
| 20260510000626 | 21 | 132 | 1.6 | 8.0 | 0.00 | 0.00 | 0.00 | 74 | 1013.4 |
| 20260510000419 | 21 | 215 | 1.6 | 6.4 | 0.00 | 0.00 | 0.00 | 73 | 1013.5 |
| 20260510000319 | 21 | 203 | 1.6 | 6.4 | 0.00 | 0.00 | 0.00 | 74 | 1013.5 |
| 20260510000220 | 21 | 155 | 1.6 | 6.4 | 0.00 | 0.00 | 0.00 | 73 | 1013.3 |
| 20260510000119 | 21 | 217 | 1.6 | 6.4 | 0.00 | 0.00 | 0.00 | 73 | 1013.5 |
| 20260509235914 | 21 | 176 | 1.6 | 6.4 | 0.00 | 0.00 | 0.00 | 73 | 1013.4 |
| 20260509235813 | 21 | 219 | 1.6 | 6.4 | 0.00 | 0.00 | 0.00 | 73 | 1013.7 |
| 20260509235715 | 21 | 199 | 1.6 | 6.4 | 0.00 | 0.00 | 0.00 | 73 | 1013.5 |
| 20260509235613 | 21 | 209 | 1.6 | 8.0 | 0.00 | 0.00 | 0.00 | 73 | 1013.3 |
| 20260509235412 | 21 | 264 | 3.2 | 8.0 | 0.00 | 0.00 | 0.00 | 73 | 1013.4 |
| 20260509235312 | 21 | 224 | 3.2 | 8.0 | 0.00 | 0.00 | 0.00 | 73 | 1013.4 |
| 20260509235212 | 21 | 186 | 3.2 | 8.0 | 0.00 | 0.00 | 0.00 | 73 | 1013.5 |
| 20260509235109 | 21 | 250 | 3.2 | 8.0 | 0.00 | 0.00 | 0.00 | 73 | 1013.4 |
| 20260509234903 | 21 | 242 | 3.2 | 8.0 | 0.00 | 0.00 | 0.00 | 72 | 1013.4 |
| 20260509234803 | 21 | 239 | 3.2 | 8.0 | 0.00 | 0.00 | 0.00 | 72 | 1013.5 |
| 20260509234701 | 21 | 203 | 3.2 | 8.0 | 0.00 | 0.00 | 0.00 | 72 | 1013.4 |
| 20260509234603 | 21 | 202 | 3.2 | 6.4 | 0.00 | 0.00 | 0.00 | 73 | 1013.5 |
| 20260509234400 | 21 | 216 | 1.6 | 6.4 | 0.00 | 0.00 | 0.00 | 72 | 1013.3 |
| 20260509234259 | 21 | 207 | 3.2 | 6.4 | 0.00 | 0.00 | 0.00 | 72 | 1013.4 |
| 20260509234159 | 21 | 217 | 1.6 | 8.0 | 0.00 | 0.00 | 0.00 | 72 | 1013.4 |
| 20260509234058 | 21 | 230 | 1.6 | 8.0 | 0.00 | 0.00 | 0.00 | 72 | 1013.3 |
| 20260509233853 | 21 | 140 | 3.2 | 8.0 | 0.00 | 0.00 | 0.00 | 72 | 1013.2 |
| 20260509233749 | 21 | 160 | 3.2 | 8.0 | 0.00 | 0.00 | 0.00 | 72 | 1013.2 |
| 20260509233650 | 21 | 191 | 3.2 | 8.0 | 0.00 | 0.00 | 0.00 | 71 | 1013.1 |
| 20260509233549 | 21 | 158 | 3.2 | 9.7 | 0.00 | 0.00 | 0.00 | 71 | 1013.1 |
| 20260509233346 | 21 | 175 | 3.2 | 9.7 | 0.00 | 0.00 | 0.00 | 71 | 1013.1 |
| 20260509233245 | 21 | 221 | 3.2 | 9.7 | 0.00 | 0.00 | 0.00 | 71 | 1013.0 |
| 20260509233145 | 21 | 176 | 3.2 | 9.7 | 0.00 | 0.00 | 0.00 | 71 | 1013.0 |
| 20260509233047 | 21 | 179 | 3.2 | 9.7 | 0.00 | 0.00 | 0.00 | 71 | 1013.0 |
| 20260509232843 | 21 | 213 | 4.8 | 9.7 | 0.00 | 0.00 | 0.00 | 71 | 1013.0 |
| 20260509232742 | 21 | 198 | 3.2 | 9.7 | 0.00 | 0.00 | 0.00 | 71 | 1012.9 |
| 20260509232641 | 21 | 211 | 3.2 | 9.7 | 0.00 | 0.00 | 0.00 | 71 | 1012.9 |
| 20260509232601 | 21 | 162 | 3.2 | 9.7 | 0.00 | 0.00 | 0.00 | 71 | 1012.9 |
| 20260509232542 | 21 | 156 | 1.6 | 9.7 | 0.00 | 0.00 | 0.00 | 71 | 1012.9 |
| 20260509232333 | 22 | 160 | 1.6 | 9.7 | 0.00 | 0.00 | 0.00 | 71 | 1013.0 |
| 20260509232233 | 22 | 222 | 1.6 | 9.7 | 0.00 | 0.00 | 0.00 | 71 | 1013.0 |
| 20260509232132 | 22 | 211 | 1.6 | 9.7 | 0.00 | 0.00 | 0.00 | 71 | 1012.9 |
| 20260509232031 | 22 | 245 | 1.6 | 9.7 | 0.00 | 0.00 | 0.00 | 71 | 1012.9 |
| 20260509231826 | 22 | 150 | 1.6 | 4.8 | 0.00 | 0.00 | 0.00 | 72 | 1012.9 |
| 20260509231725 | 22 | 214 | 1.6 | 4.8 | 0.00 | 0.00 | 0.00 | 71 | 1013.0 |
| 20260509231626 | 22 | 214 | 1.6 | 4.8 | 0.00 | 0.00 | 0.00 | 71 | 1013.0 |
| 20260509231525 | 22 | 214 | 1.6 | 4.8 | 0.00 | 0.00 | 0.00 | 71 | 1013.0 |
| 20260509231323 | 22 | 128 | 1.6 | 4.8 | 0.00 | 0.00 | 0.00 | 71 | 1013.0 |
| 20260509231220 | 22 | 128 | 1.6 | 4.8 | 0.00 | 0.00 | 0.00 | 71 | 1013.0 |
| 20260509231121 | 22 | 128 | 1.6 | 4.8 | 0.00 | 0.00 | 0.00 | 72 | 1013.0 |
| 20260509231020 | 22 | 155 | 1.6 | 4.8 | 0.00 | 0.00 | 0.00 | 71 | 1012.9 |
| 20260509230817 | 22 | 214 | 1.6 | 4.8 | 0.00 | 0.00 | 0.00 | 71 | 1012.8 |
| 20260509230717 | 22 | 134 | 1.6 | 4.8 | 0.00 | 0.00 | 0.00 | 70 | 1012.8 |
| 20260509230615 | 22 | 179 | 0.0 | 4.8 | 0.00 | 0.00 | 0.00 | 70 | 1012.8 |
| 20260509230516 | 22 | 226 | 0.0 | 3.2 | 0.00 | 0.00 | 0.00 | 71 | 1012.8 |
| 20260509230309 | 22 | 178 | 0.0 | 3.2 | 0.00 | 0.00 | 0.00 | 71 | 1012.7 |
| 20260509230208 | 22 | 178 | 0.0 | 3.2 | 0.00 | 0.00 | 0.00 | 71 | 1012.7 |
| 20260509230108 | 22 | 153 | 0.0 | 3.2 | 0.00 | 0.00 | 0.00 | 71 | 1012.8 |
| 20260509230007 | 22 | 197 | 0.0 | 3.2 | 0.00 | 0.00 | 0.00 | 71 | 1012.7 |
| 20260509225807 | 22 | 206 | 0.0 | 3.2 | 0.00 | 0.00 | 0.00 | 71 | 1012.6 |
| 20260509225705 | 22 | 219 | 0.0 | 1.6 | 0.00 | 0.00 | 0.00 | 71 | 1012.6 |
| 20260509225605 | 22 | 240 | 0.0 | 1.6 | 0.00 | 0.00 | 0.00 | 71 | 1012.7 |
| 20260509225523 | 22 | 240 | 0.0 | 1.6 | 0.00 | 0.00 | 0.00 | 71 | 1012.7 |
| 20260509225506 | 22 | 236 | 0.0 | 1.6 | 0.00 | 0.00 | 0.00 | 71 | 1012.6 |
| 20260509225300 | 22 | 236 | 0.0 | 1.6 | 0.00 | 0.00 | 0.00 | 71 | 1012.7 |
| 20260509225159 | 22 | 236 | 0.0 | 1.6 | 0.00 | 0.00 | 0.00 | 71 | 1012.7 |
| 20260509225101 | 22 | 236 | 0.0 | 1.6 | 0.00 | 0.00 | 0.00 | 70 | 1012.7 |
| 20260509224957 | 22 | 236 | 0.0 | 4.8 | 0.00 | 0.00 | 0.00 | 70 | 1012.6 |
| 20260509224757 | 22 | 236 | 0.0 | 4.8 | 0.00 | 0.00 | 0.00 | 71 | 1012.6 |
| 20260509224655 | 22 | 236 | 0.0 | 4.8 | 0.00 | 0.00 | 0.00 | 70 | 1012.6 |
| 20260509224554 | 22 | 235 | 1.6 | 4.8 | 0.00 | 0.00 | 0.00 | 70 | 1012.6 |
| 20260509224452 | 22 | 269 | 1.6 | 4.8 | 0.00 | 0.00 | 0.00 | 69 | 1012.6 |
| 20260509224249 | 22 | 221 | 1.6 | 6.4 | 0.00 | 0.00 | 0.00 | 70 | 1012.6 |
| 20260509224147 | 22 | 279 | 1.6 | 8.0 | 0.00 | 0.00 | 0.00 | 69 | 1012.5 |
| 20260509224047 | 22 | 210 | 1.6 | 8.0 | 0.00 | 0.00 | 0.00 | 69 | 1012.4 |
| 20260509224012 | 22 | 174 | 1.6 | 8.0 | 0.00 | 0.00 | 0.00 | 69 | 1012.5 |
| 20260509223953 | 22 | 236 | 1.6 | 8.0 | 0.00 | 0.00 | 0.00 | 69 | 1012.4 |
| 20260509223741 | 22 | 236 | 3.2 | 8.0 | 0.00 | 0.00 | 0.00 | 69 | 1012.4 |
| 20260509223643 | 22 | 209 | 3.2 | 8.0 | 0.00 | 0.00 | 0.00 | 69 | 1012.5 |
| 20260509223539 | 22 | 227 | 3.2 | 8.0 | 0.00 | 0.00 | 0.00 | 68 | 1012.5 |
| 20260509223439 | 22 | 237 | 3.2 | 9.7 | 0.00 | 0.00 | 0.00 | 68 | 1012.6 |
| 20260509223234 | 22 | 282 | 3.2 | 9.7 | 0.00 | 0.00 | 0.00 | 68 | 1012.7 |
| 20260509223133 | 22 | 132 | 3.2 | 9.7 | 0.00 | 0.00 | 0.00 | 68 | 1012.7 |
| 20260509223033 | 22 | 220 | 3.2 | 9.7 | 0.00 | 0.00 | 0.00 | 67 | 1012.6 |
| 20260509222932 | 22 | 154 | 3.2 | 9.7 | 0.00 | 0.00 | 0.00 | 67 | 1012.7 |
| 20260509222727 | 22 | 252 | 3.2 | 9.7 | 0.00 | 0.00 | 0.00 | 67 | 1012.6 |
| 20260509222629 | 22 | 187 | 3.2 | 9.7 | 0.00 | 0.00 | 0.00 | 66 | 1012.6 |
| 20260509222526 | 22 | 205 | 3.2 | 9.7 | 0.00 | 0.00 | 0.00 | 67 | 1012.7 |
| 20260509222425 | 22 | 231 | 3.2 | 9.7 | 0.00 | 0.00 | 0.00 | 67 | 1012.7 |
| 20260509222218 | 22 | 219 | 3.2 | 9.7 | 0.00 | 0.00 | 0.00 | 67 | 1012.6 |
| 20260509222119 | 22 | 208 | 3.2 | 9.7 | 0.00 | 0.00 | 0.00 | 66 | 1012.6 |
| 20260509222019 | 23 | 203 | 3.2 | 9.7 | 0.00 | 0.00 | 0.00 | 66 | 1012.5 |
| 20260509221919 | 23 | 219 | 3.2 | 9.7 | 0.00 | 0.00 | 0.00 | 65 | 1012.6 |
| 20260509221714 | 23 | 191 | 3.2 | 9.7 | 0.00 | 0.00 | 0.00 | 65 | 1012.6 |
| 20260509221614 | 23 | 234 | 3.2 | 9.7 | 0.00 | 0.00 | 0.00 | 64 | 1012.6 |
| 20260509221513 | 23 | 217 | 3.2 | 9.7 | 0.00 | 0.00 | 0.00 | 65 | 1012.7 |
| 20260509221414 | 23 | 208 | 3.2 | 9.7 | 0.00 | 0.00 | 0.00 | 65 | 1012.6 |
| 20260509221208 | 23 | 181 | 3.2 | 11.3 | 0.00 | 0.00 | 0.00 | 64 | 1012.5 |
| 20260509221107 | 23 | 224 | 3.2 | 11.3 | 0.00 | 0.00 | 0.00 | 64 | 1012.5 |
| 20260509221008 | 23 | 160 | 3.2 | 11.3 | 0.00 | 0.00 | 0.00 | 64 | 1012.5 |
| 20260509220907 | 23 | 145 | 4.8 | 11.3 | 0.00 | 0.00 | 0.00 | 64 | 1012.5 |
| 20260509220703 | 23 | 224 | 4.8 | 12.9 | 0.00 | 0.00 | 0.00 | 64 | 1012.6 |
| 20260509220603 | 23 | 234 | 4.8 | 12.9 | 0.00 | 0.00 | 0.00 | 64 | 1012.6 |
| 20260509220503 | 23 | 201 | 6.4 | 12.9 | 0.00 | 0.00 | 0.00 | 64 | 1012.5 |
| 20260509220425 | 23 | 202 | 6.4 | 12.9 | 0.00 | 0.00 | 0.00 | 63 | 1012.6 |
| 20260509220406 | 24 | 184 | 6.4 | 12.9 | 0.00 | 0.00 | 0.00 | 64 | 1012.6 |
| 20260509220157 | 24 | 269 | 6.4 | 14.5 | 0.00 | 0.00 | 0.00 | 64 | 1012.6 |
| 20260509220055 | 24 | 161 | 6.4 | 14.5 | 0.00 | 0.00 | 0.00 | 64 | 1012.6 |
| 20260509215957 | 24 | 260 | 6.4 | 14.5 | 0.00 | 0.00 | 0.00 | 64 | 1012.6 |
| 20260509215855 | 24 | 229 | 6.4 | 14.5 | 0.00 | 0.00 | 0.00 | 64 | 1012.7 |
| 20260509215649 | 24 | 201 | 6.4 | 17.7 | 0.00 | 0.00 | 0.00 | 64 | 1012.7 |
| 20260509215551 | 23 | 224 | 6.4 | 17.7 | 0.00 | 0.00 | 0.00 | 64 | 1012.7 |
| 20260509215450 | 23 | 188 | 6.4 | 17.7 | 0.00 | 0.00 | 0.00 | 64 | 1012.6 |
| 20260509215351 | 23 | 221 | 8.0 | 17.7 | 0.00 | 0.00 | 0.00 | 64 | 1012.6 |
| 20260509215146 | 23 | 208 | 6.4 | 17.7 | 0.00 | 0.00 | 0.00 | 64 | 1012.6 |
| 20260509215043 | 23 | 227 | 8.0 | 17.7 | 0.00 | 0.00 | 0.00 | 65 | 1012.7 |
| 20260509214944 | 23 | 263 | 8.0 | 17.7 | 0.00 | 0.00 | 0.00 | 63 | 1012.7 |
| 20260509214842 | 23 | 208 | 6.4 | 17.7 | 0.00 | 0.00 | 0.00 | 64 | 1012.6 |
| 20260509214638 | 23 | 238 | 6.4 | 17.7 | 0.00 | 0.00 | 0.00 | 65 | 1012.6 |
| 20260509214538 | 23 | 186 | 4.8 | 17.7 | 0.00 | 0.00 | 0.00 | 64 | 1012.6 |
| 20260509214438 | 23 | 198 | 4.8 | 16.1 | 0.00 | 0.00 | 0.00 | 65 | 1012.6 |
| 20260509214338 | 23 | 223 | 3.2 | 11.3 | 0.00 | 0.00 | 0.00 | 66 | 1012.5 |
| 20260509214133 | 23 | 302 | 3.2 | 9.7 | 0.00 | 0.00 | 0.00 | 66 | 1012.5 |
| 20260509214034 | 23 | 208 | 3.2 | 9.7 | 0.00 | 0.00 | 0.00 | 67 | 1012.4 |
| 20260509213933 | 23 | 148 | 1.6 | 8.0 | 0.00 | 0.00 | 0.00 | 67 | 1012.4 |
| 20260509213853 | 23 | 321 | 3.2 | 9.7 | 0.00 | 0.00 | 0.00 | 66 | 1012.4 |
| 20260509213836 | 23 | 269 | 3.2 | 9.7 | 0.00 | 0.00 | 0.00 | 67 | 1012.4 |
| 20260509213628 | 23 | 215 | 3.2 | 9.7 | 0.00 | 0.00 | 0.00 | 67 | 1012.4 |
| 20260509213525 | 23 | 127 | 3.2 | 9.7 | 0.00 | 0.00 | 0.00 | 67 | 1012.4 |
| 20260509213426 | 23 | 173 | 3.2 | 9.7 | 0.00 | 0.00 | 0.00 | 66 | 1012.4 |
| 20260509213327 | 23 | 216 | 3.2 | 11.3 | 0.00 | 0.00 | 0.00 | 66 | 1012.4 |
| 20260509213122 | 23 | 165 | 4.8 | 11.3 | 0.00 | 0.00 | 0.00 | 66 | 1012.5 |
| 20260509213021 | 23 | 211 | 4.8 | 11.3 | 0.00 | 0.00 | 0.00 | 66 | 1012.5 |
| 20260509212921 | 23 | 203 | 4.8 | 11.3 | 0.00 | 0.00 | 0.00 | 66 | 1012.4 |
| 20260509212822 | 23 | 165 | 4.8 | 11.3 | 0.00 | 0.00 | 0.00 | 67 | 1012.4 |
| 20260509212617 | 23 | 140 | 4.8 | 14.5 | 0.00 | 0.00 | 0.00 | 65 | 1012.4 |
| 20260509212514 | 23 | 147 | 6.4 | 14.5 | 0.00 | 0.00 | 0.00 | 65 | 1012.5 |
| 20260509212414 | 23 | 226 | 6.4 | 14.5 | 0.00 | 0.00 | 0.00 | 65 | 1012.5 |
| 20260509212313 | 23 | 229 | 6.4 | 14.5 | 0.00 | 0.00 | 0.00 | 65 | 1012.4 |
| 20260509212110 | 23 | 72 | 6.4 | 14.5 | 0.00 | 0.00 | 0.00 | 65 | 1012.4 |
| 20260509212007 | 23 | 232 | 6.4 | 14.5 | 0.00 | 0.00 | 0.00 | 66 | 1012.3 |
| 20260509211908 | 23 | 124 | 6.4 | 14.5 | 0.00 | 0.00 | 0.00 | 66 | 1012.5 |
| 20260509211807 | 23 | 202 | 6.4 | 14.5 | 0.00 | 0.00 | 0.00 | 66 | 1012.5 |
| 20260509211603 | 23 | 159 | 4.8 | 14.5 | 0.00 | 0.00 | 0.00 | 67 | 1012.4 |
| 20260509211502 | 23 | 269 | 4.8 | 14.5 | 0.00 | 0.00 | 0.00 | 68 | 1012.4 |
| 20260509211401 | 23 | 228 | 3.2 | 14.5 | 0.00 | 0.00 | 0.00 | 67 | 1012.4 |
| 20260509211302 | 23 | 220 | 3.2 | 14.5 | 0.00 | 0.00 | 0.00 | 66 | 1012.4 |
| 20260509211056 | 23 | 163 | 3.2 | 11.3 | 0.00 | 0.00 | 0.00 | 66 | 1012.3 |
| 20260509210955 | 23 | 195 | 3.2 | 9.7 | 0.00 | 0.00 | 0.00 | 66 | 1012.3 |
| 20260509210856 | 23 | 233 | 3.2 | 9.7 | 0.00 | 0.00 | 0.00 | 66 | 1012.3 |
| 20260509210755 | 23 | 247 | 3.2 | 9.7 | 0.00 | 0.00 | 0.00 | 66 | 1012.2 |
| 20260509210553 | 23 | 257 | 3.2 | 9.7 | 0.00 | 0.00 | 0.00 | 65 | 1012.3 |
| 20260509210452 | 23 | 30 | 3.2 | 9.7 | 0.00 | 0.00 | 0.00 | 65 | 1012.1 |
| 20260509210354 | 23 | 194 | 3.2 | 9.7 | 0.00 | 0.00 | 0.00 | 64 | 1012.1 |
| 20260509210252 | 23 | 203 | 3.2 | 9.7 | 0.00 | 0.00 | 0.00 | 64 | 1012.1 |
| 20260509210045 | 23 | 222 | 3.2 | 9.7 | 0.00 | 0.00 | 0.00 | 64 | 1012.0 |
| 20260509205943 | 23 | 188 | 3.2 | 11.3 | 0.00 | 0.00 | 0.00 | 63 | 1012.1 |
| 20260509205847 | 23 | 255 | 3.2 | 11.3 | 0.00 | 0.00 | 0.00 | 64 | 1011.9 |
| 20260509205743 | 23 | 257 | 3.2 | 11.3 | 0.00 | 0.00 | 0.00 | 63 | 1012.0 |
| 20260509205540 | 23 | 284 | 4.8 | 11.3 | 0.00 | 0.00 | 0.00 | 64 | 1012.0 |
| 20260509205438 | 23 | 266 | 4.8 | 11.3 | 0.00 | 0.00 | 0.00 | 66 | 1012.1 |
| 20260509205237 | 23 | 190 | 4.8 | 11.3 | 0.00 | 0.00 | 0.00 | 64 | 1012.0 |
| 20260509205034 | 23 | 179 | 4.8 | 11.3 | 0.00 | 0.00 | 0.00 | 64 | 1012.0 |
| 20260509204930 | 23 | 182 | 3.2 | 11.3 | 0.00 | 0.00 | 0.00 | 63 | 1012.1 |
| 20260509204832 | 23 | 188 | 3.2 | 11.3 | 0.00 | 0.00 | 0.00 | 63 | 1012.0 |
| 20260509204730 | 23 | 239 | 3.2 | 11.3 | 0.00 | 0.00 | 0.00 | 63 | 1012.0 |
| 20260509204524 | 23 | 261 | 3.2 | 11.3 | 0.00 | 0.00 | 0.00 | 64 | 1012.1 |
| 20260509204426 | 23 | 290 | 3.2 | 12.9 | 0.00 | 0.00 | 0.00 | 64 | 1012.1 |
| 20260509204324 | 23 | 158 | 4.8 | 12.9 | 0.00 | 0.00 | 0.00 | 65 | 1012.1 |
| 20260509204226 | 23 | 214 | 4.8 | 12.9 | 0.00 | 0.00 | 0.00 | 64 | 1012.2 |
| 20260509204021 | 23 | 232 | 6.4 | 16.1 | 0.00 | 0.00 | 0.00 | 65 | 1012.2 |
| 20260509203922 | 23 | 165 | 6.4 | 16.1 | 0.00 | 0.00 | 0.00 | 64 | 1012.2 |
| 20260509203822 | 23 | 226 | 6.4 | 16.1 | 0.00 | 0.00 | 0.00 | 64 | 1012.3 |
| 20260509203721 | 23 | 213 | 6.4 | 16.1 | 0.00 | 0.00 | 0.00 | 64 | 1012.2 |
| 20260509203514 | 23 | 195 | 6.4 | 16.1 | 0.00 | 0.00 | 0.00 | 64 | 1012.3 |
| 20260509203413 | 23 | 214 | 6.4 | 16.1 | 0.00 | 0.00 | 0.00 | 64 | 1012.2 |
| 20260509203314 | 23 | 262 | 4.8 | 16.1 | 0.00 | 0.00 | 0.00 | 62 | 1012.2 |
| 20260509203214 | 23 | 284 | 4.8 | 16.1 | 0.00 | 0.00 | 0.00 | 62 | 1012.2 |
| 20260509203010 | 23 | 169 | 3.2 | 12.9 | 0.00 | 0.00 | 0.00 | 62 | 1012.4 |
| 20260509202909 | 23 | 216 | 3.2 | 12.9 | 0.00 | 0.00 | 0.00 | 62 | 1012.2 |
| 20260509202809 | 23 | 212 | 3.2 | 12.9 | 0.00 | 0.00 | 0.00 | 64 | 1012.4 |
| 20260509202709 | 23 | 208 | 4.8 | 12.9 | 0.00 | 0.00 | 0.00 | 65 | 1012.3 |
| 20260509202502 | 23 | 181 | 4.8 | 12.9 | 0.00 | 0.00 | 0.00 | 63 | 1012.3 |
| 20260509202402 | 23 | 219 | 4.8 | 14.5 | 0.00 | 0.00 | 0.00 | 65 | 1012.3 |
| 20260509202306 | 23 | 224 | 6.4 | 14.5 | 0.00 | 0.00 | 0.00 | 64 | 1012.2 |
| 20260509202201 | 23 | 160 | 6.4 | 16.1 | 0.00 | 0.00 | 0.00 | 64 | 1012.2 |
| 20260509201957 | 23 | 219 | 6.4 | 16.1 | 0.00 | 0.00 | 0.00 | 63 | 1012.3 |
| 20260509201854 | 23 | 191 | 6.4 | 16.1 | 0.00 | 0.00 | 0.00 | 63 | 1012.3 |
| 20260509201756 | 23 | 170 | 6.4 | 16.1 | 0.00 | 0.00 | 0.00 | 62 | 1012.2 |
| 20260509201654 | 23 | 164 | 6.4 | 16.1 | 0.00 | 0.00 | 0.00 | 62 | 1012.3 |
| 20260509201451 | 23 | 200 | 6.4 | 16.1 | 0.00 | 0.00 | 0.00 | 61 | 1012.3 |
| 20260509201350 | 23 | 183 | 6.4 | 16.1 | 0.00 | 0.00 | 0.00 | 61 | 1012.3 |
| 20260509201249 | 23 | 247 | 4.8 | 16.1 | 0.00 | 0.00 | 0.00 | 61 | 1012.2 |
| 20260509201148 | 23 | 198 | 6.4 | 12.9 | 0.00 | 0.00 | 0.00 | 61 | 1012.3 |
| 20260509200946 | 24 | 199 | 6.4 | 12.9 | 0.00 | 0.00 | 0.00 | 60 | 1012.3 |
| 20260509200848 | 24 | 276 | 4.8 | 12.9 | 0.00 | 0.00 | 0.00 | 61 | 1012.3 |
| 20260509200745 | 24 | 279 | 4.8 | 12.9 | 0.00 | 0.00 | 0.00 | 63 | 1012.3 |
| 20260509200646 | 24 | 201 | 4.8 | 12.9 | 0.00 | 0.00 | 0.00 | 60 | 1012.3 |
| 20260509200440 | 24 | 164 | 4.8 | 12.9 | 0.00 | 0.00 | 0.00 | 59 | 1012.4 |
| 20260509200339 | 24 | 184 | 4.8 | 12.9 | 0.00 | 0.00 | 0.00 | 60 | 1012.4 |
| 20260509200240 | 24 | 287 | 4.8 | 16.1 | 0.00 | 0.00 | 0.00 | 61 | 1012.4 |
| 20260509200140 | 24 | 153 | 4.8 | 16.1 | 0.00 | 0.00 | 0.00 | 63 | 1012.4 |
| 20260509200038 | 24 | 221 | 4.8 | 16.1 | 0.00 | 0.00 | 0.00 | 61 | 1012.4 |
| 20260509195932 | 24 | 252 | 4.8 | 16.1 | 0.00 | 0.00 | 0.00 | 63 | 1012.4 |
| 20260509195831 | 23 | 89 | 4.8 | 16.1 | 0.00 | 0.00 | 0.00 | 64 | 1012.4 |
| 20260509195732 | 23 | 170 | 4.8 | 16.1 | 0.00 | 0.00 | 0.00 | 64 | 1012.4 |
| 20260509195632 | 23 | 202 | 6.4 | 16.1 | 0.00 | 0.00 | 0.00 | 62 | 1012.4 |
| 20260509195532 | 23 | 144 | 6.4 | 16.1 | 0.00 | 0.00 | 0.00 | 61 | 1012.4 |
| 20260509195425 | 23 | 228 | 4.8 | 16.1 | 0.00 | 0.00 | 0.00 | 62 | 1012.4 |
| 20260509195324 | 23 | 282 | 4.8 | 16.1 | 0.00 | 0.00 | 0.00 | 62 | 1012.4 |
| 20260509195225 | 23 | 220 | 4.8 | 14.5 | 0.00 | 0.00 | 0.00 | 61 | 1012.4 |
| 20260509195126 | 23 | 220 | 4.8 | 14.5 | 0.00 | 0.00 | 0.00 | 61 | 1012.4 |
| 20260509195026 | 23 | 215 | 4.8 | 11.3 | 0.00 | 0.00 | 0.00 | 60 | 1012.5 |
| 20260509194922 | 23 | 210 | 3.2 | 11.3 | 0.00 | 0.00 | 0.00 | 59 | 1012.6 |
| 20260509194818 | 23 | 253 | 4.8 | 16.1 | 0.00 | 0.00 | 0.00 | 62 | 1012.6 |
| 20260509194719 | 23 | 266 | 4.8 | 16.1 | 0.00 | 0.00 | 0.00 | 62 | 1012.6 |
| 20260509194618 | 23 | 153 | 4.8 | 16.1 | 0.00 | 0.00 | 0.00 | 62 | 1012.6 |
| 20260509194521 | 23 | 269 | 4.8 | 16.1 | 0.00 | 0.00 | 0.00 | 61 | 1012.6 |
| 20260509194412 | 23 | 288 | 4.8 | 16.1 | 0.00 | 0.00 | 0.00 | 62 | 1012.7 |
| 20260509194314 | 23 | 216 | 4.8 | 16.1 | 0.00 | 0.00 | 0.00 | 61 | 1012.7 |
| 20260509194214 | 23 | 153 | 4.8 | 16.1 | 0.00 | 0.00 | 0.00 | 61 | 1012.6 |
| 20260509194114 | 23 | 145 | 6.4 | 16.1 | 0.00 | 0.00 | 0.00 | 61 | 1012.7 |
| 20260509194014 | 23 | 174 | 6.4 | 16.1 | 0.00 | 0.00 | 0.00 | 60 | 1012.7 |
| 20260509193908 | 23 | 169 | 6.4 | 16.1 | 0.00 | 0.00 | 0.00 | 60 | 1012.8 |
| 20260509193811 | 23 | 183 | 6.4 | 17.7 | 0.00 | 0.00 | 0.00 | 60 | 1012.8 |
| 20260509193713 | 23 | 200 | 6.4 | 17.7 | 0.00 | 0.00 | 0.00 | 60 | 1012.7 |
| 20260509193653 | 24 | 215 | 6.4 | 17.7 | 0.00 | 0.00 | 0.00 | 59 | 1012.7 |
| 20260509193508 | 24 | 212 | 6.4 | 17.7 | 0.00 | 0.00 | 0.00 | 60 | 1012.7 |
| 20260509193401 | 24 | 174 | 8.0 | 17.7 | 0.00 | 0.00 | 0.00 | 61 | 1012.7 |
| 20260509193301 | 23 | 193 | 8.0 | 17.7 | 0.00 | 0.00 | 0.00 | 63 | 1012.7 |
| 20260509193202 | 23 | 280 | 8.0 | 17.7 | 0.00 | 0.00 | 0.00 | 59 | 1012.7 |
| 20260509193106 | 23 | 203 | 8.0 | 17.7 | 0.00 | 0.00 | 0.00 | 59 | 1012.7 |